| time (UTC) | temp F | wind direction | speed MPH | gust MPH | rain 1hr in | rain 24hr in | rain mn in | humidity % | barometer mb |
| 20260903141525 | 77 | 266 | 1.0 | 2.0 | 0.00 | 0.28 | 0.24 | 89 | 1016.6 |
| 20260903141421 | 76 | 261 | 0.0 | 1.0 | 0.00 | 0.28 | 0.24 | 87 | 1016.6 |
| 20260903141317 | 76 | 261 | 1.0 | 1.0 | 0.00 | 0.28 | 0.24 | 86 | 1016.7 |
| 20260903141228 | 76 | 262 | 2.0 | 3.0 | 0.00 | 0.28 | 0.24 | 86 | 1016.9 |
| 20260903141124 | 76 | 231 | 2.0 | 4.0 | 0.00 | 0.28 | 0.24 | 88 | 1016.8 |
| 20260903141020 | 76 | 230 | 1.0 | 2.0 | 0.00 | 0.28 | 0.24 | 87 | 1016.8 |
| 20260903140915 | 76 | 237 | 3.0 | 4.0 | 0.00 | 0.28 | 0.24 | 87 | 1016.9 |
| 20260903140827 | 76 | 240 | 2.0 | 4.0 | 0.00 | 0.28 | 0.24 | 84 | 1017.1 |
| 20260903140722 | 76 | 227 | 6.0 | 9.0 | 0.00 | 0.28 | 0.24 | 85 | 1017.0 |
| 20260903140618 | 76 | 259 | 3.0 | 3.0 | 0.00 | 0.28 | 0.24 | 88 | 1016.8 |
| 20260903140530 | 76 | 187 | 2.0 | 4.0 | 0.00 | 0.28 | 0.24 | 87 | 1016.8 |
| 20260903140425 | 76 | 286 | 2.0 | 4.0 | 0.00 | 0.28 | 0.24 | 85 | 1016.9 |
| 20260903140341 | 76 | 232 | 4.0 | 7.0 | 0.00 | 0.28 | 0.24 | 86 | 1016.9 |
| 20260903140236 | 76 | 223 | 2.0 | 6.0 | 0.00 | 0.28 | 0.24 | 88 | 1016.7 |
| 20260903140128 | 76 | 232 | 3.0 | 6.0 | 0.00 | 0.28 | 0.24 | 88 | 1016.8 |
| 20260903140023 | 76 | 228 | 3.0 | 7.0 | 0.00 | 0.28 | 0.24 | 88 | 1016.7 |
| 20260903135919 | 76 | 225 | 3.0 | 4.0 | 0.00 | 0.28 | 0.24 | 89 | 1016.7 |
| 20260903135830 | 75 | 241 | 2.0 | 2.0 | 0.00 | 0.28 | 0.24 | 90 | 1016.7 |
| 20260903135726 | 75 | 240 | 3.0 | 4.0 | 0.00 | 0.28 | 0.24 | 88 | 1016.8 |
| 20260903135622 | 75 | 237 | 4.0 | 7.0 | 0.00 | 0.28 | 0.24 | 90 | 1016.8 |
| 20260903135517 | 75 | 243 | 2.0 | 4.0 | 0.00 | 0.28 | 0.24 | 92 | 1016.8 |
| 20260903135449 | 75 | 267 | 1.0 | 2.0 | 0.00 | 0.28 | 0.24 | 92 | 1016.8 |
| 20260903135325 | 74 | 243 | 1.0 | 3.0 | 0.00 | 0.28 | 0.24 | 94 | 1016.8 |
| 20260903135220 | 74 | 235 | 1.0 | 1.0 | 0.00 | 0.28 | 0.24 | 91 | 1016.8 |
| 20260903135116 | 74 | 235 | 2.0 | 6.0 | 0.00 | 0.28 | 0.24 | 93 | 1016.8 |
| 20260903135027 | 74 | 252 | 2.0 | 3.0 | 0.00 | 0.28 | 0.24 | 93 | 1016.9 |
| 20260903134923 | 74 | 310 | 2.0 | 4.0 | 0.00 | 0.28 | 0.24 | 93 | 1016.8 |
| 20260903134818 | 73 | 210 | 1.0 | 2.0 | 0.00 | 0.28 | 0.24 | 94 | 1016.8 |
| 20260903134730 | 73 | 207 | 1.0 | 3.0 | 0.00 | 0.28 | 0.24 | 94 | 1016.8 |
| 20260903134625 | 73 | 236 | 2.0 | 2.0 | 0.00 | 0.28 | 0.24 | 94 | 1017.0 |
| 20260903134521 | 73 | 249 | 3.0 | 4.0 | 0.00 | 0.28 | 0.24 | 94 | 1016.9 |
| 20260903134416 | 73 | 238 | 1.0 | 6.0 | 0.00 | 0.28 | 0.24 | 94 | 1016.9 |
| 20260903134348 | 73 | 194 | 1.0 | 2.0 | 0.00 | 0.28 | 0.24 | 94 | 1016.9 |
| 20260903134224 | 73 | 173 | 3.0 | 4.0 | 0.00 | 0.28 | 0.24 | 95 | 1016.9 |
| 20260903134120 | 73 | 168 | 1.0 | 4.0 | 0.00 | 0.28 | 0.24 | 95 | 1016.9 |
| 20260903134031 | 73 | 203 | 2.0 | 4.0 | 0.00 | 0.28 | 0.24 | 95 | 1016.9 |
| 20260903133946 | 73 | 240 | 2.0 | 4.0 | 0.00 | 0.28 | 0.24 | 95 | 1017.1 |
| 20260903133822 | 73 | 224 | 2.0 | 4.0 | 0.00 | 0.28 | 0.24 | 95 | 1016.9 |
| 20260903133758 | 73 | 244 | 4.0 | 7.0 | 0.00 | 0.28 | 0.24 | 96 | 1016.8 |
| 20260903133630 | 73 | 247 | 2.0 | 4.0 | 0.00 | 0.28 | 0.24 | 97 | 1016.9 |
| 20260903133525 | 72 | 242 | 2.0 | 3.0 | 0.00 | 0.28 | 0.24 | 97 | 1016.9 |
| 20260903133421 | 72 | 194 | 1.0 | 2.0 | 0.00 | 0.28 | 0.24 | 97 | 1016.8 |
| 20260903133316 | 72 | 188 | 0.0 | 2.0 | 0.00 | 0.28 | 0.24 | 97 | 1016.8 |
| 20260903133228 | 72 | 187 | 1.0 | 2.0 | 0.00 | 0.28 | 0.24 | 97 | 1016.9 |
| 20260903133124 | 72 | 204 | 1.0 | 2.0 | 0.00 | 0.28 | 0.24 | 96 | 1017.0 |
| 20260903133019 | 72 | 237 | 0.0 | 1.0 | 0.00 | 0.28 | 0.24 | 96 | 1017.0 |
| 20260903133011 | 72 | 237 | 2.0 | 2.0 | 0.00 | 0.28 | 0.24 | 97 | 1016.9 |
| 20260903132826 | 72 | 235 | 2.0 | 6.0 | 0.00 | 0.28 | 0.24 | 97 | 1017.1 |
| 20260903132722 | 72 | 238 | 2.0 | 4.0 | 0.00 | 0.28 | 0.24 | 98 | 1016.9 |
| 20260903132638 | 72 | 236 | 2.0 | 2.0 | 0.00 | 0.28 | 0.24 | 98 | 1017.2 |
| 20260903132529 | 72 | 239 | 1.0 | 3.0 | 0.00 | 0.28 | 0.24 | 98 | 1016.9 |
| 20260903132425 | 72 | 225 | 0.0 | 1.0 | 0.00 | 0.28 | 0.24 | 98 | 1016.9 |
| 20260903132320 | 71 | 225 | 1.0 | 1.0 | 0.00 | 0.28 | 0.24 | 98 | 1017.0 |
| 20260903132236 | 71 | 224 | 0.0 | 1.0 | 0.00 | 0.28 | 0.24 | 98 | 1017.0 |
| 20260903132127 | 71 | 224 | 0.0 | 1.0 | 0.00 | 0.28 | 0.24 | 98 | 1016.8 |
| 20260903132023 | 71 | 225 | 0.0 | 2.0 | 0.00 | 0.28 | 0.24 | 98 | 1016.8 |
| 20260903131919 | 71 | 223 | 0.0 | 1.0 | 0.00 | 0.28 | 0.24 | 98 | 1016.8 |
| 20260903131830 | 71 | 215 | 1.0 | 2.0 | 0.00 | 0.28 | 0.24 | 98 | 1016.9 |
| 20260903131726 | 71 | 156 | 1.0 | 2.0 | 0.00 | 0.28 | 0.24 | 98 | 1017.0 |
| 20260903131622 | 71 | 153 | 1.0 | 2.0 | 0.00 | 0.28 | 0.24 | 98 | 1016.9 |
| 20260903131517 | 71 | 154 | 1.0 | 2.0 | 0.00 | 0.28 | 0.24 | 98 | 1017.0 |
| 20260903131429 | 71 | 163 | 1.0 | 2.0 | 0.00 | 0.28 | 0.24 | 98 | 1016.9 |
| 20260903131325 | 71 | 234 | 1.0 | 2.0 | 0.00 | 0.28 | 0.24 | 98 | 1017.0 |
| 20260903131240 | 71 | 235 | 1.0 | 2.0 | 0.00 | 0.29 | 0.24 | 98 | 1017.0 |
| 20260903131147 | 71 | 234 | 1.0 | 1.0 | 0.00 | 0.29 | 0.24 | 98 | 1016.8 |
| 20260903130922 | 70 | 168 | 1.0 | 1.0 | 0.00 | 0.29 | 0.24 | 98 | 1017.0 |
| 20260903130818 | 70 | 0.0 | 0.0 | 0.00 | 0.29 | 0.24 | 98 | 1017.0 | |
| 20260903130730 | 70 | 169 | 0.0 | 1.0 | 0.00 | 0.29 | 0.24 | 98 | 1016.9 |
| 20260903130625 | 70 | 170 | 1.0 | 3.0 | 0.00 | 0.29 | 0.24 | 98 | 1016.8 |
| 20260903130521 | 70 | 175 | 1.0 | 1.0 | 0.00 | 0.29 | 0.24 | 98 | 1016.7 |
| 20260903130416 | 70 | 175 | 1.0 | 1.0 | 0.00 | 0.29 | 0.24 | 98 | 1017.0 |
| 20260903130328 | 70 | 175 | 1.0 | 2.0 | 0.00 | 0.29 | 0.24 | 98 | 1017.0 |
| 20260903130223 | 70 | 178 | 1.0 | 2.0 | 0.00 | 0.29 | 0.24 | 98 | 1017.0 |
| 20260903130119 | 70 | 183 | 1.0 | 2.0 | 0.00 | 0.29 | 0.24 | 98 | 1017.0 |
| 20260903130031 | 70 | 190 | 1.0 | 2.0 | 0.00 | 0.29 | 0.24 | 98 | 1016.8 |
| 20260903125946 | 70 | 229 | 1.0 | 2.0 | 0.00 | 0.29 | 0.24 | 98 | 1017.0 |
| 20260903125842 | 70 | 244 | 1.0 | 1.0 | 0.00 | 0.29 | 0.24 | 98 | 1017.0 |
| 20260903125716 | 70 | 244 | 1.0 | 1.0 | 0.00 | 0.29 | 0.24 | 98 | 1017.0 |
| 20260903125627 | 70 | 244 | 0.0 | 1.0 | 0.00 | 0.29 | 0.24 | 98 | 1017.0 |
| 20260903125523 | 70 | 244 | 0.0 | 1.0 | 0.00 | 0.29 | 0.24 | 98 | 1017.0 |
| 20260903125438 | 70 | 0.0 | 0.0 | 0.00 | 0.29 | 0.24 | 98 | 1017.0 | |
| 20260903125330 | 70 | 244 | 1.0 | 2.0 | 0.00 | 0.29 | 0.24 | 98 | 1016.9 |
| 20260903125226 | 70 | 245 | 0.0 | 1.0 | 0.00 | 0.29 | 0.24 | 98 | 1016.9 |
| 20260903125121 | 70 | 245 | 1.0 | 1.0 | 0.00 | 0.29 | 0.24 | 98 | 1016.9 |
| 20260903125017 | 70 | 245 | 1.0 | 1.0 | 0.00 | 0.29 | 0.24 | 98 | 1016.9 |
| 20260903124929 | 70 | 244 | 1.0 | 3.0 | 0.00 | 0.29 | 0.24 | 98 | 1017.1 |
| 20260903124844 | 70 | 237 | 1.0 | 2.0 | 0.00 | 0.29 | 0.24 | 98 | 1017.1 |
| 20260903124720 | 70 | 0.0 | 0.0 | 0.00 | 0.29 | 0.24 | 98 | 1017.1 | |
| 20260903124615 | 70 | 236 | 1.0 | 3.0 | 0.00 | 0.29 | 0.24 | 98 | 1017.0 |
| 20260903124527 | 70 | 229 | 2.0 | 3.0 | 0.00 | 0.29 | 0.24 | 99 | 1017.0 |
| 20260903124423 | 70 | 164 | 0.0 | 1.0 | 0.00 | 0.29 | 0.24 | 99 | 1016.9 |
| 20260903124318 | 70 | 162 | 0.0 | 1.0 | 0.00 | 0.29 | 0.24 | 99 | 1016.8 |
| 20260903124230 | 70 | 162 | 1.0 | 2.0 | 0.00 | 0.29 | 0.24 | 99 | 1016.9 |
| 20260903124125 | 70 | 158 | 0.0 | 1.0 | 0.00 | 0.29 | 0.24 | 99 | 1016.9 |
| 20260903124021 | 70 | 158 | 1.0 | 3.0 | 0.00 | 0.29 | 0.24 | 99 | 1016.8 |
| 20260903123916 | 70 | 174 | 1.0 | 2.0 | 0.00 | 0.30 | 0.24 | 99 | 1017.0 |
| 20260903123828 | 70 | 184 | 1.0 | 1.0 | 0.00 | 0.30 | 0.24 | 99 | 1017.0 |
| 20260903123724 | 70 | 185 | 1.0 | 2.0 | 0.00 | 0.30 | 0.24 | 99 | 1017.1 |
| 20260903123619 | 70 | 187 | 1.0 | 1.0 | 0.00 | 0.30 | 0.24 | 99 | 1017.0 |
| 20260903123531 | 70 | 187 | 1.0 | 1.0 | 0.00 | 0.30 | 0.24 | 99 | 1016.8 |
| 20260903123426 | 70 | 189 | 1.0 | 2.0 | 0.00 | 0.30 | 0.24 | 99 | 1017.1 |
| 20260903123322 | 70 | 190 | 1.0 | 2.0 | 0.00 | 0.30 | 0.24 | 99 | 1017.1 |
| 20260903123218 | 70 | 198 | 1.0 | 2.0 | 0.00 | 0.30 | 0.24 | 99 | 1016.9 |
| 20260903123129 | 70 | 202 | 1.0 | 2.0 | 0.00 | 0.30 | 0.24 | 99 | 1017.0 |
| 20260903123025 | 70 | 203 | 0.0 | 1.0 | 0.00 | 0.30 | 0.24 | 99 | 1017.0 |
| 20260903122920 | 70 | 203 | 0.0 | 1.0 | 0.00 | 0.30 | 0.24 | 99 | 1016.9 |
| 20260903122816 | 70 | 216 | 1.0 | 2.0 | 0.00 | 0.30 | 0.24 | 99 | 1016.8 |
| 20260903122727 | 70 | 241 | 0.0 | 1.0 | 0.00 | 0.30 | 0.24 | 99 | 1016.8 |
| 20260903122623 | 70 | 241 | 1.0 | 1.0 | 0.00 | 0.30 | 0.24 | 99 | 1016.8 |
| 20260903122519 | 70 | 241 | 0.0 | 1.0 | 0.00 | 0.30 | 0.24 | 99 | 1016.8 |
| 20260903122430 | 70 | 241 | 0.0 | 2.0 | 0.00 | 0.30 | 0.24 | 99 | 1016.8 |
| 20260903122326 | 70 | 241 | 0.0 | 1.0 | 0.00 | 0.30 | 0.24 | 99 | 1016.7 |
| 20260903122222 | 69 | 0.0 | 0.0 | 0.00 | 0.30 | 0.24 | 99 | 1016.8 | |
| 20260903122117 | 70 | 0.0 | 0.0 | 0.00 | 0.30 | 0.24 | 99 | 1016.8 | |
| 20260903122029 | 70 | 0.0 | 0.0 | 0.00 | 0.30 | 0.24 | 99 | 1016.8 | |
| 20260903121924 | 70 | 241 | 1.0 | 1.0 | 0.00 | 0.30 | 0.24 | 99 | 1016.8 |
| 20260903121840 | 69 | 0.0 | 0.0 | 0.00 | 0.30 | 0.24 | 99 | 1016.8 | |
| 20260903121716 | 69 | 0.0 | 0.0 | 0.00 | 0.30 | 0.24 | 99 | 1016.9 | |
| 20260903121627 | 69 | 241 | 0.0 | 1.0 | 0.00 | 0.30 | 0.24 | 99 | 1016.8 |
| 20260903121522 | 69 | 241 | 0.0 | 1.0 | 0.00 | 0.30 | 0.24 | 99 | 1016.8 |
| 20260903121418 | 69 | 241 | 1.0 | 1.0 | 0.00 | 0.30 | 0.24 | 99 | 1016.8 |
| 20260903121330 | 69 | 241 | 0.0 | 1.0 | 0.00 | 0.30 | 0.24 | 99 | 1016.7 |
| 20260903121225 | 69 | 0.0 | 0.0 | 0.00 | 0.30 | 0.24 | 99 | 1016.7 | |
| 20260903121141 | 69 | 0.0 | 0.0 | 0.00 | 0.30 | 0.24 | 99 | 1016.5 | |
| 20260903121036 | 69 | 241 | 1.0 | 1.0 | 0.00 | 0.30 | 0.24 | 99 | 1016.5 |
| 20260903120928 | 69 | 241 | 1.0 | 1.0 | 0.00 | 0.30 | 0.24 | 99 | 1016.7 |
| 20260903120824 | 69 | 0.0 | 0.0 | 0.00 | 0.30 | 0.24 | 99 | 1016.8 | |
| 20260903120739 | 69 | 241 | 0.0 | 1.0 | 0.00 | 0.30 | 0.24 | 99 | 1016.7 |
| 20260903120631 | 69 | 0.0 | 0.0 | 0.00 | 0.30 | 0.24 | 99 | 1016.6 | |
| 20260903120526 | 69 | 242 | 0.0 | 1.0 | 0.00 | 0.30 | 0.24 | 99 | 1017.0 |
| 20260903120422 | 69 | 0.0 | 0.0 | 0.00 | 0.30 | 0.24 | 99 | 1017.0 | |
| 20260903120317 | 69 | 0.0 | 0.0 | 0.00 | 0.30 | 0.24 | 99 | 1016.8 | |
| 20260903120229 | 69 | 241 | 0.0 | 1.0 | 0.00 | 0.30 | 0.24 | 99 | 1016.9 |
| 20260903120124 | 69 | 242 | 1.0 | 1.0 | 0.00 | 0.30 | 0.24 | 99 | 1016.8 |
| 20260903120020 | 69 | 242 | 1.0 | 2.0 | 0.00 | 0.30 | 0.24 | 99 | 1016.7 |
| 20260903115915 | 69 | 0.0 | 0.0 | 0.00 | 0.30 | 0.24 | 99 | 1016.9 | |
| 20260903115827 | 69 | 242 | 0.0 | 1.0 | 0.00 | 0.30 | 0.24 | 99 | 1016.8 |
| 20260903115742 | 69 | 242 | 1.0 | 2.0 | 0.00 | 0.30 | 0.24 | 99 | 1016.6 |
| 20260903115618 | 69 | 246 | 0.0 | 1.0 | 0.00 | 0.30 | 0.24 | 99 | 1016.6 |
| 20260903115530 | 69 | 246 | 1.0 | 1.0 | 0.00 | 0.30 | 0.24 | 99 | 1016.9 |
| 20260903115446 | 69 | 246 | 1.0 | 1.0 | 0.00 | 0.30 | 0.24 | 99 | 1016.9 |
| 20260903115321 | 69 | 245 | 1.0 | 2.0 | 0.00 | 0.30 | 0.24 | 99 | 1017.0 |
| 20260903115257 | 69 | 247 | 1.0 | 1.0 | 0.00 | 0.30 | 0.24 | 99 | 1017.1 |
| 20260903115128 | 69 | 247 | 1.0 | 2.0 | 0.00 | 0.30 | 0.24 | 99 | 1016.9 |
| 20260903115024 | 69 | 247 | 1.0 | 1.0 | 0.00 | 0.30 | 0.24 | 99 | 1017.2 |
| 20260903114919 | 69 | 247 | 0.0 | 1.0 | 0.00 | 0.30 | 0.24 | 99 | 1017.2 |
| 20260903114831 | 69 | 247 | 0.0 | 1.0 | 0.00 | 0.30 | 0.24 | 99 | 1017.3 |
| 20260903114726 | 69 | 247 | 1.0 | 2.0 | 0.00 | 0.30 | 0.24 | 99 | 1017.3 |
| 20260903114622 | 69 | 248 | 1.0 | 2.0 | 0.00 | 0.30 | 0.24 | 99 | 1017.3 |
| 20260903114518 | 69 | 247 | 1.0 | 2.0 | 0.00 | 0.30 | 0.24 | 99 | 1017.3 |
| 20260903114429 | 69 | 248 | 1.0 | 1.0 | 0.00 | 0.30 | 0.24 | 99 | 1017.4 |
| 20260903114324 | 69 | 248 | 1.0 | 1.0 | 0.00 | 0.30 | 0.24 | 99 | 1017.5 |
| 20260903114220 | 69 | 248 | 1.0 | 1.0 | 0.00 | 0.30 | 0.24 | 99 | 1017.6 |
| 20260903114116 | 69 | 248 | 1.0 | 1.0 | 0.00 | 0.30 | 0.24 | 99 | 1017.4 |
| 20260903114028 | 69 | 247 | 1.0 | 2.0 | 0.00 | 0.30 | 0.24 | 99 | 1017.5 |
| 20260903113923 | 69 | 247 | 1.0 | 2.0 | 0.00 | 0.30 | 0.24 | 99 | 1017.5 |
| 20260903113819 | 69 | 247 | 2.0 | 3.0 | 0.00 | 0.30 | 0.24 | 99 | 1017.5 |
| 20260903113750 | 69 | 248 | 1.0 | 2.0 | 0.00 | 0.30 | 0.24 | 99 | 1017.3 |
| 20260903113625 | 69 | 0.0 | 0.0 | 0.00 | 0.30 | 0.24 | 99 | 1017.3 | |
| 20260903113521 | 69 | 0.0 | 0.0 | 0.00 | 0.30 | 0.24 | 99 | 1017.3 | |
| 20260903113417 | 69 | 0.0 | 0.0 | 0.00 | 0.30 | 0.24 | 99 | 1017.3 | |
| 20260903113328 | 69 | 0.0 | 0.0 | 0.00 | 0.30 | 0.24 | 99 | 1017.0 | |
| 20260903113223 | 69 | 0.0 | 0.0 | 0.00 | 0.30 | 0.24 | 99 | 1017.2 | |
| 20260903113119 | 69 | 0.0 | 0.0 | 0.00 | 0.30 | 0.24 | 99 | 1017.2 | |
| 20260903113051 | 69 | 0.0 | 0.0 | 0.00 | 0.30 | 0.24 | 99 | 1017.3 | |
| 20260903112946 | 69 | 0.0 | 0.0 | 0.00 | 0.30 | 0.24 | 99 | 1017.3 | |
| 20260903112822 | 69 | 0.0 | 0.0 | 0.00 | 0.30 | 0.24 | 99 | 1017.3 | |
| 20260903112718 | 68 | 0.0 | 0.0 | 0.00 | 0.30 | 0.24 | 99 | 1017.2 | |
| 20260903112629 | 68 | 240 | 0.0 | 1.0 | 0.00 | 0.30 | 0.24 | 99 | 1017.3 |
| 20260903112525 | 68 | 240 | 0.0 | 1.0 | 0.00 | 0.30 | 0.24 | 99 | 1017.3 |
| 20260903112420 | 68 | 0.0 | 0.0 | 0.00 | 0.30 | 0.24 | 99 | 1017.1 | |
| 20260903112316 | 68 | 240 | 0.0 | 1.0 | 0.00 | 0.30 | 0.24 | 99 | 1017.2 |
| 20260903112227 | 68 | 240 | 1.0 | 1.0 | 0.00 | 0.30 | 0.24 | 99 | 1017.1 |
| 20260903112122 | 68 | 240 | 0.0 | 1.0 | 0.00 | 0.30 | 0.24 | 99 | 1017.0 |
| 20260903112018 | 68 | 240 | 0.0 | 1.0 | 0.00 | 0.30 | 0.24 | 99 | 1017.0 |
| 20260903111930 | 68 | 0.0 | 0.0 | 0.00 | 0.30 | 0.24 | 99 | 1017.2 | |
| 20260903111825 | 68 | 0.0 | 0.0 | 0.00 | 0.30 | 0.24 | 99 | 1017.2 | |
| 20260903111721 | 68 | 0.0 | 0.0 | 0.00 | 0.30 | 0.24 | 99 | 1016.9 | |
| 20260903111616 | 68 | 240 | 0.0 | 1.0 | 0.00 | 0.30 | 0.24 | 99 | 1016.9 |
| 20260903111528 | 68 | 0.0 | 0.0 | 0.00 | 0.30 | 0.24 | 99 | 1016.9 | |
| 20260903111444 | 68 | 0.0 | 0.0 | 0.00 | 0.30 | 0.24 | 99 | 1017.0 | |
| 20260903111319 | 68 | 0.0 | 0.0 | 0.00 | 0.30 | 0.24 | 99 | 1017.1 | |
| 20260903111231 | 68 | 239 | 0.0 | 1.0 | 0.00 | 0.30 | 0.24 | 99 | 1016.9 |
| 20260903111126 | 68 | 0.0 | 0.0 | 0.00 | 0.30 | 0.24 | 99 | 1017.1 | |
| 20260903111022 | 68 | 0.0 | 0.0 | 0.00 | 0.30 | 0.24 | 99 | 1017.0 | |
| 20260903110917 | 68 | 239 | 0.0 | 1.0 | 0.00 | 0.30 | 0.24 | 99 | 1016.9 |
| 20260903110828 | 68 | 239 | 0.0 | 1.0 | 0.00 | 0.30 | 0.24 | 99 | 1017.0 |
| 20260903110744 | 68 | 240 | 1.0 | 2.0 | 0.00 | 0.30 | 0.24 | 99 | 1017.1 |
| 20260903110619 | 68 | 0.0 | 0.0 | 0.00 | 0.30 | 0.24 | 99 | 1017.1 | |
| 20260903110530 | 68 | 0.0 | 0.0 | 0.00 | 0.30 | 0.24 | 99 | 1017.2 | |
| 20260903110446 | 68 | 0.0 | 0.0 | 0.00 | 0.30 | 0.24 | 99 | 1017.1 | |
| 20260903110322 | 68 | 0.0 | 0.0 | 0.00 | 0.30 | 0.24 | 99 | 1017.1 | |
| 20260903110218 | 68 | 242 | 0.0 | 1.0 | 0.00 | 0.30 | 0.24 | 99 | 1017.1 |
| 20260903110129 | 68 | 242 | 1.0 | 2.0 | 0.00 | 0.30 | 0.24 | 99 | 1017.2 |
| 20260903110024 | 68 | 243 | 2.0 | 2.0 | 0.00 | 0.30 | 0.24 | 99 | 1017.4 |
| 20260903105920 | 68 | 243 | 2.0 | 2.0 | 0.00 | 0.30 | 0.24 | 99 | 1017.3 |
| 20260903105816 | 68 | 244 | 0.0 | 2.0 | 0.00 | 0.30 | 0.24 | 99 | 1017.2 |
| 20260903105727 | 68 | 245 | 1.0 | 2.0 | 0.00 | 0.30 | 0.24 | 99 | 1017.4 |
| 20260903105623 | 68 | 237 | 1.0 | 2.0 | 0.00 | 0.30 | 0.24 | 99 | 1017.4 |
| 20260903105518 | 68 | 234 | 1.0 | 2.0 | 0.00 | 0.30 | 0.24 | 99 | 1017.4 |
| 20260903105430 | 68 | 230 | 0.0 | 1.0 | 0.00 | 0.30 | 0.24 | 99 | 1017.3 |
| 20260903105325 | 68 | 230 | 1.0 | 1.0 | 0.00 | 0.30 | 0.24 | 99 | 1017.4 |
| 20260903105221 | 68 | 230 | 1.0 | 1.0 | 0.00 | 0.30 | 0.24 | 99 | 1017.4 |
| 20260903105116 | 68 | 230 | 0.0 | 1.0 | 0.00 | 0.30 | 0.24 | 99 | 1017.5 |
| 20260903105028 | 68 | 230 | 1.0 | 2.0 | 0.00 | 0.30 | 0.24 | 99 | 1017.6 |
| 20260903104924 | 68 | 221 | 1.0 | 2.0 | 0.00 | 0.30 | 0.24 | 99 | 1017.5 |
| 20260903104819 | 68 | 203 | 1.0 | 1.0 | 0.00 | 0.30 | 0.24 | 99 | 1017.4 |
| 20260903104731 | 68 | 203 | 0.0 | 2.0 | 0.00 | 0.30 | 0.24 | 99 | 1017.5 |
| 20260903104626 | 68 | 203 | 0.0 | 1.0 | 0.00 | 0.30 | 0.24 | 99 | 1017.3 |
| 20260903104522 | 68 | 203 | 0.0 | 1.0 | 0.00 | 0.30 | 0.24 | 99 | 1017.4 |
| 20260903104417 | 68 | 203 | 1.0 | 2.0 | 0.00 | 0.30 | 0.24 | 99 | 1017.4 |
| 20260903104329 | 68 | 204 | 1.0 | 2.0 | 0.00 | 0.30 | 0.24 | 99 | 1017.4 |
| 20260903104245 | 68 | 203 | 0.0 | 1.0 | 0.00 | 0.30 | 0.24 | 99 | 1017.4 |
| 20260903104120 | 68 | 203 | 1.0 | 2.0 | 0.00 | 0.30 | 0.24 | 99 | 1017.4 |
| 20260903104016 | 68 | 203 | 1.0 | 2.0 | 0.00 | 0.30 | 0.24 | 99 | 1017.4 |
| 20260903103927 | 68 | 202 | 2.0 | 2.0 | 0.00 | 0.30 | 0.24 | 99 | 1017.3 |
| 20260903103823 | 68 | 200 | 1.0 | 2.0 | 0.00 | 0.30 | 0.24 | 99 | 1017.3 |
| 20260903103718 | 68 | 200 | 1.0 | 1.0 | 0.00 | 0.30 | 0.24 | 99 | 1017.3 |
| 20260903103630 | 68 | 0.0 | 0.0 | 0.00 | 0.30 | 0.24 | 99 | 1017.0 | |
| 20260903103526 | 68 | 0.0 | 0.0 | 0.00 | 0.30 | 0.24 | 99 | 1017.2 | |
| 20260903103441 | 68 | 0.0 | 0.0 | 0.00 | 0.30 | 0.24 | 99 | 1017.2 | |
| 20260903103317 | 68 | 0.0 | 0.0 | 0.00 | 0.30 | 0.24 | 99 | 1017.2 | |
| 20260903103228 | 68 | 0.0 | 0.0 | 0.00 | 0.30 | 0.24 | 99 | 1017.4 | |
| 20260903103144 | 68 | 201 | 0.0 | 1.0 | 0.00 | 0.30 | 0.24 | 99 | 1017.2 |
| 20260903103019 | 68 | 0.0 | 0.0 | 0.00 | 0.30 | 0.24 | 99 | 1017.2 | |
| 20260903102931 | 68 | 200 | 0.0 | 1.0 | 0.00 | 0.30 | 0.24 | 99 | 1017.2 |
| 20260903102826 | 68 | 200 | 1.0 | 1.0 | 0.00 | 0.30 | 0.24 | 99 | 1017.2 |
| 20260903102722 | 68 | 201 | 1.0 | 1.0 | 0.00 | 0.30 | 0.24 | 99 | 1017.3 |
| 20260903102618 | 68 | 200 | 0.0 | 1.0 | 0.00 | 0.30 | 0.24 | 99 | 1017.3 |
| 20260903102549 | 68 | 200 | 0.0 | 1.0 | 0.00 | 0.30 | 0.24 | 99 | 1017.3 |
| 20260903102444 | 68 | 0.0 | 0.0 | 0.00 | 0.30 | 0.24 | 99 | 1017.3 | |
| 20260903102320 | 68 | 0.0 | 0.0 | 0.00 | 0.30 | 0.24 | 99 | 1017.1 | |
| 20260903102216 | 68 | 200 | 0.0 | 1.0 | 0.00 | 0.30 | 0.24 | 99 | 1017.2 |
| 20260903102127 | 68 | 0.0 | 0.0 | 0.00 | 0.30 | 0.24 | 99 | 1017.3 | |
| 20260903102110 | 68 | 0.0 | 0.0 | 0.00 | 0.30 | 0.24 | 99 | 1017.1 | |
| 20260903102050 | 68 | 0.0 | 0.0 | 0.00 | 0.30 | 0.24 | 99 | 1016.9 | |
| 20260903101805 | 68 | 0.0 | 0.0 | 0.00 | 0.30 | 0.24 | 99 | 1017.1 | |
| 20260903101621 | 68 | 0.0 | 0.0 | 0.00 | 0.30 | 0.24 | 99 | 1017.1 | |
| 20260903101517 | 68 | 200 | 0.0 | 1.0 | 0.00 | 0.30 | 0.24 | 99 | 1017.1 |
| 20260903101428 | 68 | 198 | 1.0 | 2.0 | 0.00 | 0.30 | 0.24 | 99 | 1017.2 |
| 20260903101324 | 68 | 176 | 1.0 | 1.0 | 0.00 | 0.30 | 0.24 | 99 | 1017.3 |
| 20260903101219 | 68 | 176 | 1.0 | 2.0 | 0.00 | 0.30 | 0.24 | 99 | 1017.2 |
| 20260903101131 | 68 | 156 | 0.0 | 2.0 | 0.00 | 0.30 | 0.24 | 99 | 1017.1 |
| 20260903101026 | 68 | 0.0 | 0.0 | 0.00 | 0.30 | 0.24 | 99 | 1017.1 | |
| 20260903100921 | 68 | 154 | 0.0 | 1.0 | 0.00 | 0.30 | 0.24 | 99 | 1016.9 |
| 20260903100817 | 68 | 0.0 | 0.0 | 0.00 | 0.30 | 0.24 | 99 | 1017.2 | |
| 20260903100729 | 68 | 0.0 | 0.0 | 0.00 | 0.30 | 0.24 | 99 | 1017.0 | |
| 20260903100624 | 68 | 153 | 0.0 | 1.0 | 0.00 | 0.30 | 0.24 | 99 | 1017.0 |
| 20260903100520 | 68 | 154 | 1.0 | 1.0 | 0.00 | 0.30 | 0.24 | 99 | 1017.0 |
| 20260903100416 | 68 | 154 | 1.0 | 2.0 | 0.01 | 0.30 | 0.24 | 99 | 1016.8 |
| 20260903100327 | 68 | 154 | 0.0 | 1.0 | 0.01 | 0.30 | 0.24 | 99 | 1017.0 |
| 20260903100222 | 68 | 165 | 1.0 | 3.0 | 0.01 | 0.30 | 0.24 | 99 | 1017.1 |
| 20260903100118 | 68 | 263 | 0.0 | 1.0 | 0.01 | 0.30 | 0.24 | 99 | 1017.1 |
| 20260903100029 | 68 | 263 | 0.0 | 1.0 | 0.01 | 0.30 | 0.24 | 99 | 1017.2 |
| 20260903095925 | 68 | 263 | 0.0 | 1.0 | 0.01 | 0.30 | 0.24 | 99 | 1017.2 |
| 20260903095821 | 68 | 263 | 0.0 | 1.0 | 0.01 | 0.30 | 0.24 | 99 | 1017.2 |
| 20260903095716 | 68 | 266 | 1.0 | 2.0 | 0.01 | 0.30 | 0.24 | 99 | 1017.1 |
| 20260903095648 | 68 | 0.0 | 0.0 | 0.01 | 0.30 | 0.24 | 99 | 1017.1 | |
| 20260903095523 | 68 | 269 | 0.0 | 1.0 | 0.01 | 0.30 | 0.24 | 99 | 1017.2 |
| 20260903095419 | 68 | 269 | 0.0 | 1.0 | 0.01 | 0.30 | 0.24 | 99 | 1017.2 |
| 20260903095331 | 68 | 269 | 1.0 | 2.0 | 0.01 | 0.30 | 0.24 | 99 | 1017.3 |
| 20260903095246 | 68 | 0.0 | 0.0 | 0.01 | 0.30 | 0.24 | 99 | 1017.2 | |
| 20260903095122 | 68 | 269 | 0.0 | 1.0 | 0.01 | 0.30 | 0.24 | 99 | 1017.2 |
| 20260903095017 | 68 | 269 | 1.0 | 1.0 | 0.01 | 0.30 | 0.24 | 99 | 1017.2 |
| 20260903094929 | 68 | 269 | 0.0 | 1.0 | 0.01 | 0.30 | 0.24 | 99 | 1017.4 |
| 20260903094845 | 68 | 269 | 0.0 | 1.0 | 0.01 | 0.30 | 0.24 | 99 | 1017.3 |
| 20260903094740 | 68 | 269 | 1.0 | 1.0 | 0.01 | 0.30 | 0.24 | 99 | 1017.3 |
| 20260903094616 | 68 | 269 | 1.0 | 1.0 | 0.01 | 0.30 | 0.24 | 99 | 1017.1 |
| 20260903094527 | 68 | 264 | 1.0 | 2.0 | 0.01 | 0.30 | 0.24 | 99 | 1017.3 |
| 20260903094443 | 68 | 246 | 1.0 | 2.0 | 0.01 | 0.30 | 0.24 | 99 | 1017.4 |
| 20260903094319 | 68 | 249 | 1.0 | 3.0 | 0.01 | 0.30 | 0.24 | 99 | 1017.4 |
| 20260903094230 | 68 | 245 | 1.0 | 2.0 | 0.02 | 0.30 | 0.24 | 99 | 1017.2 |
| 20260903094126 | 68 | 248 | 2.0 | 3.0 | 0.02 | 0.30 | 0.24 | 99 | 1017.2 |
| 20260903094021 | 68 | 261 | 0.0 | 1.0 | 0.02 | 0.30 | 0.24 | 99 | 1017.2 |
| 20260903093917 | 68 | 261 | 1.0 | 1.0 | 0.02 | 0.30 | 0.24 | 99 | 1017.1 |
| 20260903093829 | 68 | 261 | 1.0 | 2.0 | 0.02 | 0.30 | 0.24 | 99 | 1017.2 |
| 20260903093724 | 68 | 254 | 2.0 | 3.0 | 0.02 | 0.30 | 0.24 | 99 | 1017.0 |
| 20260903093620 | 68 | 231 | 1.0 | 1.0 | 0.02 | 0.30 | 0.24 | 99 | 1016.9 |
| 20260903093536 | 68 | 230 | 1.0 | 3.0 | 0.02 | 0.30 | 0.24 | 99 | 1017.1 |
| 20260903093427 | 68 | 243 | 2.0 | 4.0 | 0.02 | 0.30 | 0.24 | 99 | 1016.9 |
| 20260903093343 | 68 | 227 | 0.0 | 1.0 | 0.02 | 0.30 | 0.24 | 99 | 1016.9 |
| 20260903093218 | 68 | 227 | 0.0 | 1.0 | 0.02 | 0.30 | 0.24 | 99 | 1016.6 |
| 20260903093130 | 68 | 227 | 0.0 | 1.0 | 0.02 | 0.30 | 0.24 | 99 | 1016.9 |
| 20260903093025 | 68 | 227 | 1.0 | 2.0 | 0.02 | 0.30 | 0.24 | 99 | 1016.9 |
| 20260903092921 | 68 | 226 | 1.0 | 2.0 | 0.02 | 0.30 | 0.24 | 99 | 1016.9 |
| 20260903092817 | 68 | 225 | 1.0 | 1.0 | 0.02 | 0.30 | 0.24 | 99 | 1016.8 |
| 20260903092728 | 68 | 224 | 1.0 | 2.0 | 0.02 | 0.30 | 0.24 | 99 | 1016.7 |
| 20260903092624 | 68 | 215 | 1.0 | 2.0 | 0.02 | 0.30 | 0.24 | 99 | 1016.7 |
| 20260903092519 | 68 | 208 | 1.0 | 1.0 | 0.02 | 0.30 | 0.24 | 99 | 1016.6 |
| 20260903092415 | 68 | 207 | 1.0 | 2.0 | 0.02 | 0.30 | 0.24 | 99 | 1016.6 |
| 20260903092327 | 68 | 206 | 1.0 | 1.0 | 0.02 | 0.30 | 0.24 | 99 | 1016.6 |
| 20260903092222 | 68 | 207 | 0.0 | 1.0 | 0.02 | 0.30 | 0.24 | 99 | 1016.6 |
| 20260903092117 | 68 | 167 | 1.0 | 3.0 | 0.02 | 0.30 | 0.24 | 99 | 1016.3 |
| 20260903092029 | 68 | 168 | 1.0 | 3.0 | 0.03 | 0.30 | 0.24 | 99 | 1016.5 |
| 20260903091944 | 68 | 0.0 | 0.0 | 0.03 | 0.30 | 0.24 | 99 | 1016.6 | |
| 20260903091820 | 68 | 226 | 2.0 | 3.0 | 0.03 | 0.30 | 0.24 | 99 | 1016.6 |
| 20260903091716 | 68 | 205 | 2.0 | 3.0 | 0.03 | 0.30 | 0.24 | 99 | 1016.4 |
| 20260903091627 | 68 | 175 | 1.0 | 1.0 | 0.03 | 0.30 | 0.24 | 99 | 1016.3 |
| 20260903091523 | 68 | 172 | 1.0 | 2.0 | 0.03 | 0.30 | 0.24 | 99 | 1016.4 |
| 20260903091419 | 68 | 148 | 2.0 | 3.0 | 0.03 | 0.30 | 0.24 | 99 | 1016.5 |
| 20260903091330 | 68 | 221 | 1.0 | 1.0 | 0.03 | 0.30 | 0.24 | 99 | 1016.5 |
| 20260903091226 | 68 | 221 | 0.0 | 1.0 | 0.03 | 0.30 | 0.24 | 99 | 1016.7 |
| 20260903091141 | 68 | 206 | 2.0 | 2.0 | 0.03 | 0.30 | 0.24 | 99 | 1016.6 |
| 20260903091017 | 69 | 170 | 1.0 | 2.0 | 0.03 | 0.30 | 0.24 | 99 | 1016.5 |
| 20260903090928 | 68 | 170 | 1.0 | 1.0 | 0.03 | 0.30 | 0.24 | 99 | 1016.4 |
| 20260903090824 | 68 | 170 | 1.0 | 1.0 | 0.02 | 0.30 | 0.24 | 99 | 1016.4 |
| 20260903090720 | 68 | 170 | 0.0 | 1.0 | 0.02 | 0.30 | 0.24 | 99 | 1016.4 |
| 20260903090616 | 68 | 170 | 0.0 | 1.0 | 0.02 | 0.30 | 0.24 | 99 | 1016.4 |
| 20260903090527 | 68 | 170 | 0.0 | 1.0 | 0.02 | 0.30 | 0.24 | 99 | 1016.6 |
| 20260903090423 | 69 | 167 | 1.0 | 2.0 | 0.02 | 0.29 | 0.23 | 99 | 1016.4 |
| 20260903090419 | 69 | 163 | 1.0 | 3.0 | 0.02 | 0.29 | 0.23 | 99 | 1016.5 |
| 20260903090230 | 69 | 236 | 1.0 | 3.0 | 0.02 | 0.29 | 0.23 | 99 | 1016.4 |
| 20260903090125 | 69 | 234 | 3.0 | 6.0 | 0.02 | 0.29 | 0.23 | 99 | 1016.7 |
| 20260903090021 | 69 | 208 | 0.0 | 1.0 | 0.02 | 0.29 | 0.23 | 99 | 1016.5 |
| 20260903085916 | 68 | 209 | 0.0 | 1.0 | 0.02 | 0.29 | 0.23 | 99 | 1016.6 |
| 20260903085828 | 68 | 210 | 1.0 | 2.0 | 0.02 | 0.29 | 0.23 | 99 | 1016.6 |
| 20260903085744 | 68 | 225 | 3.0 | 4.0 | 0.02 | 0.29 | 0.23 | 99 | 1016.7 |
| 20260903085619 | 69 | 245 | 4.0 | 6.0 | 0.02 | 0.29 | 0.23 | 99 | 1016.4 |
| 20260903085530 | 68 | 200 | 2.0 | 3.0 | 0.02 | 0.29 | 0.23 | 99 | 1016.6 |
| 20260903085426 | 68 | 251 | 4.0 | 9.0 | 0.02 | 0.29 | 0.23 | 99 | 1016.5 |
| 20260903085321 | 68 | 238 | 3.0 | 4.0 | 0.02 | 0.29 | 0.23 | 99 | 1016.6 |
| 20260903085216 | 69 | 166 | 1.0 | 1.0 | 0.02 | 0.29 | 0.23 | 99 | 1016.3 |
| 20260903085148 | 68 | 168 | 2.0 | 8.0 | 0.02 | 0.29 | 0.23 | 99 | 1016.3 |
| 20260903085104 | 69 | 167 | 2.0 | 8.0 | 0.02 | 0.29 | 0.23 | 99 | 1016.1 |
| 20260903084919 | 69 | 179 | 1.0 | 2.0 | 0.02 | 0.29 | 0.23 | 99 | 1015.9 |
| 20260903084831 | 68 | 181 | 2.0 | 4.0 | 0.02 | 0.29 | 0.23 | 99 | 1016.1 |
| 20260903084726 | 68 | 162 | 2.0 | 3.0 | 0.02 | 0.29 | 0.23 | 99 | 1016.2 |
| 20260903084622 | 69 | 154 | 3.0 | 6.0 | 0.02 | 0.29 | 0.23 | 99 | 1016.2 |
| 20260903084517 | 69 | 148 | 2.0 | 3.0 | 0.02 | 0.29 | 0.23 | 99 | 1016.2 |
| 20260903084429 | 69 | 159 | 2.0 | 3.0 | 0.02 | 0.29 | 0.23 | 99 | 1016.5 |
| 20260903084345 | 69 | 174 | 3.0 | 4.0 | 0.02 | 0.29 | 0.23 | 99 | 1016.6 |
| 20260903084220 | 69 | 171 | 3.0 | 4.0 | 0.01 | 0.28 | 0.22 | 99 | 1016.7 |
| 20260903084115 | 69 | 161 | 2.0 | 3.0 | 0.01 | 0.28 | 0.22 | 99 | 1016.6 |
| 20260903084027 | 69 | 175 | 2.0 | 3.0 | 0.01 | 0.28 | 0.22 | 99 | 1017.0 |
| 20260903083923 | 69 | 193 | 2.0 | 4.0 | 0.01 | 0.28 | 0.22 | 99 | 1016.9 |
| 20260903083838 | 69 | 167 | 3.0 | 6.0 | 0.01 | 0.28 | 0.22 | 99 | 1017.1 |
| 20260903083750 | 69 | 170 | 1.0 | 4.0 | 0.02 | 0.28 | 0.22 | 99 | 1017.0 |
| 20260903083645 | 69 | 165 | 2.0 | 3.0 | 0.02 | 0.28 | 0.22 | 99 | 1017.0 |
| 20260903083521 | 69 | 161 | 1.0 | 2.0 | 0.02 | 0.28 | 0.22 | 99 | 1016.7 |
| 20260903083416 | 69 | 159 | 1.0 | 2.0 | 0.02 | 0.28 | 0.22 | 99 | 1016.9 |
| 20260903083328 | 69 | 155 | 1.0 | 3.0 | 0.01 | 0.28 | 0.22 | 99 | 1017.2 |
| 20260903083224 | 69 | 157 | 2.0 | 3.0 | 0.01 | 0.28 | 0.22 | 99 | 1017.2 |
| 20260903083119 | 69 | 157 | 1.0 | 1.0 | 0.01 | 0.28 | 0.22 | 99 | 1017.2 |
| 20260903083051 | 69 | 153 | 1.0 | 2.0 | 0.01 | 0.28 | 0.22 | 99 | 1017.1 |
| 20260903082926 | 69 | 151 | 1.0 | 2.0 | 0.01 | 0.28 | 0.22 | 99 | 1017.2 |
| 20260903082822 | 69 | 150 | 1.0 | 2.0 | 0.01 | 0.28 | 0.22 | 99 | 1016.9 |
| 20260903082717 | 69 | 143 | 1.0 | 2.0 | 0.01 | 0.28 | 0.22 | 99 | 1016.8 |
| 20260903082628 | 69 | 142 | 3.0 | 3.0 | 0.01 | 0.28 | 0.22 | 99 | 1016.9 |
| 20260903082524 | 69 | 137 | 3.0 | 4.0 | 0.01 | 0.28 | 0.22 | 99 | 1017.0 |
| 20260903082419 | 69 | 138 | 5.0 | 7.0 | 0.01 | 0.28 | 0.22 | 99 | 1017.1 |
| 20260903082331 | 69 | 135 | 3.0 | 4.0 | 0.01 | 0.28 | 0.22 | 99 | 1017.4 |
| 20260903082247 | 69 | 181 | 2.0 | 3.0 | 0.01 | 0.28 | 0.22 | 99 | 1017.7 |
| 20260903082122 | 69 | 186 | 1.0 | 2.0 | 0.01 | 0.28 | 0.22 | 99 | 1017.8 |
| 20260903082018 | 69 | 187 | 1.0 | 2.0 | 0.01 | 0.27 | 0.21 | 99 | 1018.1 |
| 20260903081929 | 69 | 189 | 1.0 | 2.0 | 0.01 | 0.27 | 0.21 | 99 | 1017.9 |
| 20260903081825 | 68 | 196 | 1.0 | 2.0 | 0.01 | 0.27 | 0.21 | 99 | 1018.2 |
| 20260903081721 | 69 | 196 | 0.0 | 1.0 | 0.01 | 0.27 | 0.21 | 99 | 1018.3 |
| 20260903081616 | 68 | 196 | 0.0 | 1.0 | 0.01 | 0.27 | 0.21 | 99 | 1018.3 |
| 20260903081528 | 68 | 196 | 1.0 | 1.0 | 0.01 | 0.27 | 0.21 | 99 | 1018.4 |
| 20260903081443 | 68 | 196 | 1.0 | 2.0 | 0.01 | 0.27 | 0.21 | 99 | 1018.5 |
| 20260903081339 | 68 | 201 | 1.0 | 2.0 | 0.01 | 0.27 | 0.21 | 99 | 1018.7 |
| 20260903081231 | 68 | 212 | 1.0 | 1.0 | 0.01 | 0.27 | 0.21 | 99 | 1018.4 |
| 20260903081126 | 68 | 212 | 1.0 | 2.0 | 0.01 | 0.27 | 0.21 | 99 | 1018.5 |
| 20260903081022 | 68 | 212 | 1.0 | 2.0 | 0.01 | 0.27 | 0.21 | 99 | 1018.4 |
| 20260903080917 | 68 | 213 | 1.0 | 1.0 | 0.02 | 0.27 | 0.21 | 99 | 1018.4 |
| 20260903080829 | 68 | 213 | 1.0 | 1.0 | 0.02 | 0.27 | 0.21 | 99 | 1018.6 |
| 20260903080725 | 68 | 213 | 0.0 | 1.0 | 0.02 | 0.27 | 0.21 | 99 | 1018.4 |
| 20260903080620 | 68 | 214 | 1.0 | 1.0 | 0.02 | 0.27 | 0.21 | 99 | 1018.4 |
| 20260903080515 | 68 | 223 | 1.0 | 6.0 | 0.02 | 0.27 | 0.21 | 99 | 1018.6 |
| 20260903080427 | 68 | 231 | 1.0 | 6.0 | 0.03 | 0.27 | 0.21 | 99 | 1018.6 |
| 20260903080322 | 68 | 232 | 1.0 | 3.0 | 0.03 | 0.27 | 0.21 | 99 | 1018.6 |
| 20260903080238 | 68 | 232 | 3.0 | 3.0 | 0.03 | 0.27 | 0.21 | 99 | 1018.4 |
| 20260903080210 | 68 | 240 | 3.0 | 4.0 | 0.04 | 0.27 | 0.21 | 99 | 1018.6 |
| 20260903080025 | 68 | 248 | 1.0 | 2.0 | 0.04 | 0.27 | 0.21 | 99 | 1018.6 |
| 20260903075921 | 68 | 248 | 2.0 | 3.0 | 0.04 | 0.27 | 0.21 | 99 | 1018.6 |
| 20260903075816 | 68 | 262 | 4.0 | 6.0 | 0.04 | 0.27 | 0.21 | 99 | 1018.5 |
| 20260903075728 | 68 | 243 | 3.0 | 6.0 | 0.05 | 0.27 | 0.21 | 99 | 1018.4 |
| 20260903075623 | 68 | 248 | 2.0 | 3.0 | 0.05 | 0.27 | 0.21 | 99 | 1018.4 |
| 20260903075519 | 68 | 249 | 3.0 | 4.0 | 0.05 | 0.27 | 0.21 | 99 | 1018.3 |
| 20260903075431 | 68 | 270 | 4.0 | 7.0 | 0.05 | 0.27 | 0.21 | 99 | 1018.3 |
| 20260903075326 | 68 | 259 | 3.0 | 4.0 | 0.06 | 0.27 | 0.21 | 99 | 1018.3 |
| 20260903075222 | 68 | 267 | 1.0 | 2.0 | 0.06 | 0.27 | 0.21 | 99 | 1018.2 |
| 20260903075117 | 68 | 270 | 2.0 | 3.0 | 0.06 | 0.27 | 0.21 | 99 | 1018.0 |
| 20260903075029 | 68 | 264 | 2.0 | 3.0 | 0.06 | 0.27 | 0.21 | 99 | 1018.1 |
| 20260903074945 | 68 | 245 | 1.0 | 2.0 | 0.06 | 0.27 | 0.21 | 99 | 1018.1 |
| 20260903074820 | 68 | 245 | 1.0 | 1.0 | 0.07 | 0.27 | 0.21 | 99 | 1017.9 |
| 20260903074731 | 68 | 262 | 2.0 | 3.0 | 0.07 | 0.27 | 0.21 | 99 | 1018.1 |
| 20260903074626 | 68 | 295 | 2.0 | 4.0 | 0.07 | 0.27 | 0.21 | 99 | 1017.9 |
| 20260903074522 | 68 | 289 | 2.0 | 3.0 | 0.07 | 0.27 | 0.21 | 99 | 1017.9 |
| 20260903074417 | 68 | 306 | 2.0 | 3.0 | 0.07 | 0.27 | 0.21 | 99 | 1017.9 |
| 20260903074329 | 68 | 292 | 2.0 | 3.0 | 0.07 | 0.27 | 0.21 | 99 | 1017.9 |
| 20260903074225 | 68 | 258 | 2.0 | 3.0 | 0.07 | 0.27 | 0.21 | 99 | 1017.8 |
| 20260903074120 | 68 | 253 | 3.0 | 3.0 | 0.07 | 0.27 | 0.21 | 99 | 1017.5 |
| 20260903074016 | 68 | 236 | 2.0 | 3.0 | 0.07 | 0.27 | 0.21 | 99 | 1017.4 |
| 20260903073927 | 68 | 148 | 1.0 | 1.0 | 0.07 | 0.27 | 0.21 | 99 | 1017.2 |
| 20260903073842 | 68 | 147 | 1.0 | 1.0 | 0.07 | 0.27 | 0.21 | 99 | 1017.2 |
| 20260903073718 | 68 | 0.0 | 0.0 | 0.07 | 0.27 | 0.21 | 99 | 1017.0 | |
| 20260903073630 | 68 | 146 | 1.0 | 1.0 | 0.07 | 0.27 | 0.21 | 99 | 1017.0 |
| 20260903073525 | 68 | 149 | 1.0 | 2.0 | 0.07 | 0.27 | 0.21 | 99 | 1017.0 |
| 20260903073421 | 68 | 150 | 1.0 | 1.0 | 0.07 | 0.27 | 0.21 | 99 | 1017.0 |
| 20260903073316 | 68 | 150 | 1.0 | 1.0 | 0.08 | 0.27 | 0.21 | 99 | 1017.0 |
| 20260903073228 | 68 | 150 | 1.0 | 1.0 | 0.08 | 0.27 | 0.21 | 99 | 1016.9 |
| 20260903073123 | 68 | 151 | 1.0 | 2.0 | 0.08 | 0.27 | 0.21 | 99 | 1016.8 |
| 20260903073019 | 68 | 151 | 1.0 | 2.0 | 0.08 | 0.27 | 0.21 | 99 | 1016.7 |
| 20260903072931 | 68 | 150 | 1.0 | 2.0 | 0.08 | 0.27 | 0.21 | 99 | 1017.0 |
| 20260903072826 | 68 | 151 | 1.0 | 1.0 | 0.08 | 0.27 | 0.21 | 99 | 1017.0 |
| 20260903072722 | 68 | 151 | 1.0 | 3.0 | 0.08 | 0.27 | 0.21 | 99 | 1017.1 |
| 20260903072617 | 68 | 151 | 1.0 | 2.0 | 0.08 | 0.27 | 0.21 | 99 | 1017.0 |
| 20260903072529 | 68 | 151 | 2.0 | 2.0 | 0.09 | 0.27 | 0.21 | 99 | 1017.1 |
| 20260903072424 | 68 | 152 | 1.0 | 2.0 | 0.09 | 0.27 | 0.21 | 99 | 1017.3 |
| 20260903072320 | 68 | 152 | 2.0 | 2.0 | 0.09 | 0.27 | 0.21 | 99 | 1017.0 |
| 20260903072216 | 68 | 154 | 2.0 | 2.0 | 0.09 | 0.27 | 0.21 | 99 | 1017.1 |
| 20260903072207 | 68 | 156 | 1.0 | 2.0 | 0.09 | 0.26 | 0.20 | 99 | 1017.4 |
| 20260903072022 | 68 | 157 | 2.0 | 2.0 | 0.09 | 0.26 | 0.20 | 99 | 1017.6 |
| 20260903071918 | 68 | 158 | 1.0 | 2.0 | 0.09 | 0.26 | 0.20 | 99 | 1017.6 |
| 20260903071830 | 68 | 182 | 2.0 | 3.0 | 0.09 | 0.26 | 0.20 | 99 | 1017.7 |
| 20260903071725 | 68 | 200 | 1.0 | 2.0 | 0.09 | 0.26 | 0.20 | 98 | 1017.8 |
| 20260903071621 | 68 | 201 | 2.0 | 2.0 | 0.09 | 0.26 | 0.20 | 98 | 1017.8 |
| 20260903071516 | 68 | 235 | 1.0 | 2.0 | 0.09 | 0.26 | 0.20 | 98 | 1017.8 |
| 20260903071448 | 68 | 246 | 0.0 | 1.0 | 0.09 | 0.26 | 0.20 | 98 | 1017.8 |
| 20260903071324 | 68 | 0.0 | 0.0 | 0.09 | 0.26 | 0.20 | 98 | 1017.8 | |
| 20260903071219 | 68 | 0.0 | 0.0 | 0.09 | 0.26 | 0.20 | 98 | 1017.9 | |
| 20260903071151 | 68 | 246 | 0.0 | 1.0 | 0.09 | 0.26 | 0.20 | 98 | 1017.7 |
| 20260903071026 | 68 | 246 | 0.0 | 1.0 | 0.09 | 0.26 | 0.20 | 98 | 1017.9 |
| 20260903070921 | 68 | 246 | 1.0 | 1.0 | 0.09 | 0.26 | 0.20 | 98 | 1017.9 |
| 20260903070817 | 68 | 247 | 1.0 | 2.0 | 0.09 | 0.26 | 0.20 | 98 | 1017.8 |
| 20260903070728 | 68 | 247 | 1.0 | 1.0 | 0.08 | 0.25 | 0.19 | 98 | 1017.9 |
| 20260903070624 | 68 | 247 | 0.0 | 1.0 | 0.08 | 0.25 | 0.19 | 98 | 1017.9 |
| 20260903070540 | 68 | 247 | 0.0 | 1.0 | 0.08 | 0.25 | 0.19 | 98 | 1017.9 |
| 20260903070416 | 68 | 247 | 0.0 | 1.0 | 0.07 | 0.24 | 0.19 | 98 | 1018.0 |
| 20260903070347 | 68 | 0.0 | 0.0 | 0.07 | 0.24 | 0.18 | 98 | 1018.0 | |
| 20260903070223 | 68 | 247 | 0.0 | 1.0 | 0.07 | 0.24 | 0.18 | 98 | 1018.1 |
| 20260903070138 | 68 | 247 | 1.0 | 1.0 | 0.07 | 0.23 | 0.17 | 98 | 1018.1 |
| 20260903070029 | 68 | 247 | 0.0 | 1.0 | 0.07 | 0.23 | 0.17 | 98 | 1018.2 |
| 20260903065945 | 68 | 247 | 1.0 | 1.0 | 0.06 | 0.23 | 0.17 | 98 | 1018.2 |
| 20260903065821 | 68 | 248 | 1.0 | 1.0 | 0.06 | 0.23 | 0.17 | 98 | 1018.2 |
| 20260903065716 | 68 | 248 | 1.0 | 1.0 | 0.06 | 0.22 | 0.17 | 98 | 1018.2 |
| 20260903065628 | 68 | 248 | 1.0 | 1.0 | 0.06 | 0.22 | 0.17 | 98 | 1018.3 |
| 20260903065524 | 68 | 248 | 1.0 | 1.0 | 0.06 | 0.22 | 0.16 | 98 | 1018.3 |
| 20260903065419 | 68 | 248 | 1.0 | 1.0 | 0.06 | 0.22 | 0.16 | 98 | 1018.2 |
| 20260903065331 | 68 | 248 | 1.0 | 1.0 | 0.05 | 0.22 | 0.16 | 98 | 1018.4 |
| 20260903065226 | 68 | 248 | 1.0 | 1.0 | 0.06 | 0.22 | 0.16 | 98 | 1018.3 |
| 20260903065122 | 68 | 249 | 1.0 | 1.0 | 0.05 | 0.21 | 0.15 | 98 | 1018.3 |
| 20260903065017 | 68 | 249 | 1.0 | 1.0 | 0.05 | 0.21 | 0.15 | 98 | 1018.6 |
| 20260903064929 | 68 | 249 | 1.0 | 1.0 | 0.05 | 0.21 | 0.15 | 98 | 1018.6 |
| 20260903064824 | 68 | 249 | 0.0 | 1.0 | 0.04 | 0.20 | 0.15 | 98 | 1018.6 |
| 20260903064740 | 68 | 0.0 | 0.0 | 0.05 | 0.20 | 0.15 | 98 | 1018.6 | |
| 20260903064615 | 68 | 249 | 0.0 | 1.0 | 0.05 | 0.20 | 0.15 | 98 | 1018.7 |
| 20260903064527 | 68 | 249 | 0.0 | 1.0 | 0.04 | 0.20 | 0.14 | 98 | 1018.6 |
| 20260903064422 | 68 | 0.0 | 0.0 | 0.04 | 0.20 | 0.14 | 98 | 1018.7 | |
| 20260903064318 | 68 | 249 | 1.0 | 1.0 | 0.04 | 0.20 | 0.14 | 98 | 1018.8 |
| 20260903064230 | 68 | 0.0 | 0.0 | 0.04 | 0.20 | 0.14 | 98 | 1018.6 | |
| 20260903064145 | 68 | 0.0 | 0.0 | 0.04 | 0.20 | 0.14 | 98 | 1018.7 | |
| 20260903064020 | 68 | 249 | 0.0 | 1.0 | 0.04 | 0.20 | 0.14 | 98 | 1018.7 |
| 20260903063936 | 68 | 249 | 0.0 | 1.0 | 0.04 | 0.20 | 0.14 | 98 | 1018.7 |
| 20260903063828 | 68 | 0.0 | 0.0 | 0.04 | 0.20 | 0.14 | 98 | 1018.7 | |
| 20260903063723 | 68 | 249 | 0.0 | 1.0 | 0.04 | 0.19 | 0.13 | 98 | 1018.8 |
| 20260903063619 | 68 | 0.0 | 0.0 | 0.04 | 0.19 | 0.13 | 98 | 1018.8 | |
| 20260903063531 | 68 | 250 | 1.0 | 1.0 | 0.04 | 0.19 | 0.13 | 98 | 1018.9 |
| 20260903063426 | 68 | 249 | 1.0 | 1.0 | 0.04 | 0.19 | 0.13 | 98 | 1018.9 |
| 20260903063322 | 68 | 250 | 0.0 | 1.0 | 0.04 | 0.19 | 0.13 | 98 | 1018.9 |
| 20260903063237 | 68 | 250 | 0.0 | 1.0 | 0.04 | 0.19 | 0.13 | 98 | 1018.8 |
| 20260903063129 | 68 | 250 | 0.0 | 1.0 | 0.04 | 0.19 | 0.13 | 98 | 1018.8 |
| 20260903063045 | 68 | 250 | 1.0 | 1.0 | 0.04 | 0.19 | 0.13 | 98 | 1018.8 |
| 20260903062920 | 68 | 250 | 1.0 | 1.0 | 0.04 | 0.19 | 0.13 | 98 | 1018.7 |
| 20260903062816 | 68 | 250 | 1.0 | 2.0 | 0.04 | 0.19 | 0.13 | 98 | 1018.7 |
| 20260903062728 | 68 | 249 | 1.0 | 1.0 | 0.05 | 0.19 | 0.13 | 98 | 1018.7 |
| 20260903062623 | 68 | 249 | 1.0 | 2.0 | 0.05 | 0.19 | 0.13 | 98 | 1018.7 |
| 20260903062519 | 68 | 248 | 2.0 | 2.0 | 0.05 | 0.18 | 0.12 | 98 | 1018.5 |
| 20260903062430 | 68 | 248 | 1.0 | 2.0 | 0.05 | 0.18 | 0.12 | 98 | 1018.7 |
| 20260903062346 | 68 | 248 | 1.0 | 2.0 | 0.06 | 0.18 | 0.12 | 98 | 1018.8 |
| 20260903062221 | 68 | 248 | 1.0 | 1.0 | 0.06 | 0.18 | 0.12 | 98 | 1018.5 |
| 20260903062117 | 68 | 248 | 1.0 | 1.0 | 0.06 | 0.18 | 0.12 | 98 | 1018.5 |
| 20260903062029 | 68 | 248 | 1.0 | 1.0 | 0.06 | 0.18 | 0.12 | 98 | 1018.5 |
| 20260903061944 | 68 | 248 | 1.0 | 1.0 | 0.06 | 0.18 | 0.12 | 98 | 1018.5 |
| 20260903061820 | 68 | 248 | 0.0 | 1.0 | 0.06 | 0.18 | 0.12 | 98 | 1018.4 |
| 20260903061715 | 68 | 0.0 | 0.0 | 0.07 | 0.18 | 0.12 | 98 | 1018.4 | |
| 20260903061627 | 68 | 0.0 | 0.0 | 0.07 | 0.18 | 0.12 | 98 | 1018.5 | |
| 20260903061543 | 68 | 248 | 0.0 | 1.0 | 0.06 | 0.17 | 0.11 | 98 | 1018.5 |
| 20260903061418 | 68 | 248 | 1.0 | 2.0 | 0.06 | 0.17 | 0.11 | 98 | 1018.5 |
| 20260903061330 | 68 | 248 | 1.0 | 1.0 | 0.07 | 0.17 | 0.11 | 98 | 1018.6 |
| 20260903061225 | 68 | 248 | 1.0 | 2.0 | 0.07 | 0.17 | 0.11 | 98 | 1018.6 |
| 20260903061141 | 68 | 248 | 0.0 | 1.0 | 0.07 | 0.17 | 0.11 | 98 | 1018.5 |
| 20260903061016 | 68 | 248 | 1.0 | 1.0 | 0.07 | 0.17 | 0.11 | 98 | 1018.6 |
| 20260903060928 | 68 | 248 | 0.0 | 1.0 | 0.07 | 0.17 | 0.11 | 98 | 1018.5 |
| 20260903060823 | 68 | 248 | 0.0 | 1.0 | 0.07 | 0.17 | 0.11 | 98 | 1018.6 |
| 20260903060719 | 68 | 248 | 1.0 | 2.0 | 0.07 | 0.17 | 0.11 | 98 | 1018.6 |
| 20260903060631 | 68 | 248 | 1.0 | 2.0 | 0.07 | 0.17 | 0.11 | 98 | 1018.6 |
| 20260903060526 | 68 | 237 | 2.0 | 2.0 | 0.07 | 0.17 | 0.11 | 98 | 1018.7 |
| 20260903060442 | 68 | 232 | 2.0 | 2.0 | 0.07 | 0.17 | 0.11 | 98 | 1018.6 |
| 20260903060317 | 68 | 231 | 1.0 | 2.0 | 0.07 | 0.17 | 0.11 | 98 | 1018.4 |
| 20260903060233 | 68 | 218 | 2.0 | 2.0 | 0.07 | 0.17 | 0.11 | 98 | 1018.5 |
| 20260903060125 | 68 | 160 | 1.0 | 1.0 | 0.07 | 0.17 | 0.11 | 97 | 1018.4 |
| 20260903060020 | 68 | 159 | 0.0 | 1.0 | 0.07 | 0.17 | 0.11 | 97 | 1018.4 |
| 20260903055916 | 68 | 0.0 | 0.0 | 0.07 | 0.17 | 0.11 | 97 | 1018.3 | |
| 20260903055827 | 68 | 0.0 | 0.0 | 0.07 | 0.17 | 0.11 | 97 | 1018.2 | |
| 20260903055722 | 68 | 159 | 0.0 | 1.0 | 0.08 | 0.17 | 0.11 | 97 | 1018.1 |
| 20260903055658 | 68 | 159 | 0.0 | 1.0 | 0.08 | 0.17 | 0.11 | 97 | 1018.0 |
| 20260903055529 | 68 | 159 | 0.0 | 1.0 | 0.08 | 0.17 | 0.11 | 97 | 1018.1 |
| 20260903055425 | 68 | 158 | 1.0 | 2.0 | 0.08 | 0.17 | 0.11 | 97 | 1018.1 |
| 20260903055341 | 68 | 158 | 2.0 | 2.0 | 0.08 | 0.17 | 0.11 | 97 | 1018.1 |
| 20260903055216 | 68 | 212 | 2.0 | 3.0 | 0.07 | 0.16 | 0.10 | 97 | 1018.5 |
| 20260903055128 | 68 | 244 | 1.0 | 1.0 | 0.07 | 0.16 | 0.10 | 97 | 1018.5 |
| 20260903055024 | 68 | 244 | 0.0 | 1.0 | 0.07 | 0.16 | 0.10 | 97 | 1018.6 |
| 20260903054919 | 68 | 244 | 0.0 | 1.0 | 0.07 | 0.16 | 0.10 | 97 | 1018.7 |
| 20260903054831 | 68 | 244 | 1.0 | 1.0 | 0.07 | 0.16 | 0.10 | 97 | 1018.5 |
| 20260903054746 | 68 | 244 | 0.0 | 1.0 | 0.07 | 0.16 | 0.10 | 97 | 1018.8 |
| 20260903054622 | 68 | 244 | 1.0 | 1.0 | 0.07 | 0.16 | 0.10 | 97 | 1018.9 |
| 20260903054537 | 68 | 244 | 1.0 | 1.0 | 0.07 | 0.16 | 0.10 | 97 | 1018.9 |
| 20260903054429 | 68 | 246 | 1.0 | 1.0 | 0.07 | 0.16 | 0.10 | 97 | 1019.0 |
| 20260903054325 | 68 | 247 | 1.0 | 1.0 | 0.07 | 0.16 | 0.10 | 97 | 1019.1 |
| 20260903054240 | 68 | 247 | 1.0 | 1.0 | 0.08 | 0.16 | 0.10 | 97 | 1019.1 |
| 20260903054116 | 68 | 247 | 1.0 | 1.0 | 0.08 | 0.16 | 0.10 | 97 | 1019.4 |
| 20260903054027 | 68 | 247 | 0.0 | 1.0 | 0.08 | 0.16 | 0.10 | 97 | 1019.4 |
| 20260903053922 | 68 | 0.0 | 0.0 | 0.08 | 0.15 | 0.09 | 97 | 1019.4 | |
| 20260903053818 | 68 | 0.0 | 0.0 | 0.08 | 0.15 | 0.09 | 97 | 1019.5 | |
| 20260903053730 | 68 | 0.0 | 0.0 | 0.08 | 0.15 | 0.09 | 97 | 1019.4 | |
| 20260903053625 | 68 | 0.0 | 0.0 | 0.08 | 0.15 | 0.09 | 97 | 1019.4 | |
| 20260903053521 | 68 | 0.0 | 0.0 | 0.07 | 0.15 | 0.09 | 97 | 1019.6 | |
| 20260903053436 | 68 | 0.0 | 0.0 | 0.08 | 0.15 | 0.09 | 97 | 1019.5 | |
| 20260903053328 | 68 | 0.0 | 0.0 | 0.08 | 0.15 | 0.09 | 97 | 1019.5 | |
| 20260903053223 | 68 | 0.0 | 0.0 | 0.08 | 0.15 | 0.09 | 97 | 1019.8 | |
| 20260903053119 | 68 | 0.0 | 0.0 | 0.07 | 0.15 | 0.09 | 97 | 1019.8 | |
| 20260903053030 | 68 | 248 | 0.0 | 1.0 | 0.07 | 0.15 | 0.09 | 97 | 1019.7 |
| 20260903052926 | 68 | 0.0 | 0.0 | 0.07 | 0.14 | 0.08 | 97 | 1019.6 | |
| 20260903052821 | 68 | 0.0 | 0.0 | 0.07 | 0.14 | 0.08 | 97 | 1019.6 | |
| 20260903052717 | 68 | 0.0 | 0.0 | 0.07 | 0.14 | 0.08 | 97 | 1019.6 | |
| 20260903052628 | 68 | 0.0 | 0.0 | 0.07 | 0.13 | 0.07 | 97 | 1019.6 | |
| 20260903052524 | 68 | 0.0 | 0.0 | 0.06 | 0.13 | 0.07 | 97 | 1019.6 | |
| 20260903052419 | 68 | 0.0 | 0.0 | 0.06 | 0.13 | 0.07 | 97 | 1019.7 | |
| 20260903052351 | 68 | 247 | 0.0 | 1.0 | 0.06 | 0.13 | 0.07 | 97 | 1019.7 |
| 20260903052246 | 68 | 247 | 1.0 | 1.0 | 0.06 | 0.12 | 0.06 | 97 | 1019.6 |
| 20260903052122 | 68 | 248 | 1.0 | 1.0 | 0.06 | 0.12 | 0.06 | 97 | 1019.8 |
| 20260903052017 | 68 | 248 | 1.0 | 1.0 | 0.05 | 0.11 | 0.06 | 97 | 1019.9 |
| 20260903051929 | 68 | 0.0 | 0.0 | 0.05 | 0.11 | 0.06 | 97 | 1019.7 | |
| 20260903051825 | 68 | 249 | 0.0 | 1.0 | 0.05 | 0.11 | 0.06 | 97 | 1019.9 |
| 20260903051720 | 68 | 249 | 0.0 | 1.0 | 0.05 | 0.11 | 0.05 | 97 | 1020.0 |
| 20260903051616 | 69 | 249 | 1.0 | 1.0 | 0.05 | 0.11 | 0.05 | 97 | 1019.8 |
| 20260903051527 | 69 | 248 | 1.0 | 2.0 | 0.05 | 0.11 | 0.05 | 97 | 1020.0 |
| 20260903051423 | 69 | 249 | 1.0 | 1.0 | 0.05 | 0.11 | 0.05 | 97 | 1019.9 |
| 20260903051318 | 69 | 249 | 1.0 | 1.0 | 0.05 | 0.11 | 0.05 | 97 | 1019.9 |
| 20260903051230 | 69 | 249 | 2.0 | 2.0 | 0.05 | 0.11 | 0.05 | 97 | 1020.0 |
| 20260903051126 | 69 | 242 | 2.0 | 2.0 | 0.05 | 0.11 | 0.05 | 96 | 1020.0 |
| 20260903051021 | 69 | 239 | 1.0 | 1.0 | 0.04 | 0.10 | 0.04 | 96 | 1020.0 |
| 20260903050917 | 69 | 0.0 | 0.0 | 0.04 | 0.10 | 0.04 | 96 | 1020.0 | |
| 20260903050828 | 69 | 239 | 0.0 | 1.0 | 0.04 | 0.10 | 0.04 | 96 | 1020.1 |
| 20260903050723 | 69 | 0.0 | 0.0 | 0.04 | 0.10 | 0.04 | 96 | 1020.1 | |
| 20260903050619 | 69 | 0.0 | 0.0 | 0.04 | 0.10 | 0.04 | 96 | 1019.9 | |
| 20260903050531 | 69 | 239 | 1.0 | 1.0 | 0.04 | 0.09 | 0.04 | 96 | 1019.8 |
| 20260903050426 | 69 | 244 | 1.0 | 1.0 | 0.04 | 0.09 | 0.04 | 96 | 1019.8 |
| 20260903050322 | 69 | 256 | 0.0 | 1.0 | 0.04 | 0.09 | 0.04 | 96 | 1019.8 |
| 20260903050217 | 69 | 0.0 | 0.0 | 0.04 | 0.09 | 0.04 | 96 | 1020.0 | |
| 20260903050129 | 69 | 0.0 | 0.0 | 0.03 | 0.09 | 0.03 | 96 | 1020.0 | |
| 20260903050025 | 69 | 0.0 | 0.0 | 0.03 | 0.09 | 0.03 | 96 | 1020.1 | |
| 20260903045920 | 69 | 0.0 | 0.0 | 0.03 | 0.09 | 0.03 | 96 | 1020.1 | |
| 20260903045855 | 69 | 256 | 0.0 | 1.0 | 0.03 | 0.09 | 0.03 | 96 | 1020.1 |
| 20260903045727 | 69 | 256 | 0.0 | 1.0 | 0.03 | 0.09 | 0.03 | 96 | 1020.4 |
| 20260903045622 | 69 | 0.0 | 0.0 | 0.03 | 0.09 | 0.03 | 96 | 1020.4 | |
| 20260903045518 | 69 | 256 | 1.0 | 2.0 | 0.03 | 0.09 | 0.03 | 96 | 1020.7 |
| 20260903045430 | 69 | 256 | 0.0 | 1.0 | 0.03 | 0.09 | 0.03 | 96 | 1020.7 |
| 20260903045325 | 69 | 256 | 0.0 | 1.0 | 0.03 | 0.09 | 0.03 | 97 | 1020.7 |
| 20260903045221 | 69 | 256 | 1.0 | 2.0 | 0.03 | 0.09 | 0.03 | 96 | 1020.8 |
| 20260903045115 | 69 | 244 | 3.0 | 4.0 | 0.03 | 0.09 | 0.03 | 96 | 1020.9 |
| 20260903045048 | 69 | 260 | 2.0 | 3.0 | 0.03 | 0.09 | 0.03 | 96 | 1020.9 |
| 20260903044943 | 69 | 295 | 1.0 | 2.0 | 0.03 | 0.09 | 0.03 | 96 | 1020.9 |
| 20260903044838 | 69 | 306 | 2.0 | 2.0 | 0.03 | 0.09 | 0.03 | 96 | 1020.7 |
| 20260903044730 | 69 | 306 | 0.0 | 1.0 | 0.03 | 0.09 | 0.03 | 96 | 1020.8 |
| 20260903044705 | 69 | 306 | 0.0 | 1.0 | 0.02 | 0.08 | 0.02 | 96 | 1020.6 |
| 20260903044521 | 69 | 306 | 0.0 | 1.0 | 0.02 | 0.08 | 0.02 | 96 | 1020.7 |
| 20260903044436 | 69 | 306 | 1.0 | 3.0 | 0.02 | 0.08 | 0.02 | 96 | 1021.0 |
| 20260903044328 | 69 | 297 | 2.0 | 3.0 | 0.02 | 0.08 | 0.02 | 96 | 1020.8 |
| 20260903044244 | 69 | 298 | 3.0 | 3.0 | 0.02 | 0.08 | 0.02 | 96 | 1021.0 |
| 20260903044151 | 69 | 297 | 1.0 | 3.0 | 0.02 | 0.08 | 0.02 | 96 | 1020.9 |
| 20260903043926 | 69 | 293 | 3.0 | 6.0 | 0.02 | 0.07 | 0.02 | 96 | 1020.7 |
| 20260903043822 | 69 | 259 | 2.0 | 3.0 | 0.02 | 0.07 | 0.02 | 96 | 1020.7 |
| 20260903043717 | 69 | 246 | 1.0 | 2.0 | 0.02 | 0.07 | 0.02 | 96 | 1020.9 |
| 20260903043629 | 69 | 233 | 1.0 | 2.0 | 0.02 | 0.07 | 0.02 | 96 | 1020.9 |
| 20260903043544 | 69 | 270 | 2.0 | 3.0 | 0.02 | 0.07 | 0.02 | 96 | 1020.8 |
| 20260903043420 | 69 | 291 | 2.0 | 3.0 | 0.01 | 0.07 | 0.01 | 96 | 1020.7 |
| 20260903043316 | 69 | 228 | 2.0 | 3.0 | 0.01 | 0.07 | 0.01 | 96 | 1020.7 |
| 20260903043247 | 69 | 207 | 1.0 | 2.0 | 0.01 | 0.07 | 0.01 | 96 | 1020.5 |
| 20260903043143 | 69 | 189 | 1.0 | 2.0 | 0.01 | 0.07 | 0.01 | 96 | 1020.5 |
| 20260903043018 | 69 | 171 | 1.0 | 2.0 | 0.01 | 0.07 | 0.01 | 96 | 1020.6 |
| 20260903042930 | 69 | 126 | 1.0 | 2.0 | 0.01 | 0.07 | 0.01 | 96 | 1020.4 |
| 20260903042845 | 69 | 103 | 1.0 | 1.0 | 0.01 | 0.07 | 0.01 | 96 | 1020.3 |
| 20260903042721 | 69 | 102 | 1.0 | 1.0 | 0.01 | 0.07 | 0.01 | 96 | 1020.2 |
| 20260903042616 | 69 | 102 | 0.0 | 1.0 | 0.01 | 0.07 | 0.01 | 96 | 1020.1 |
| 20260903042528 | 69 | 0.0 | 0.0 | 0.01 | 0.07 | 0.01 | 96 | 1020.2 | |
| 20260903042424 | 69 | 0.0 | 0.0 | 0.01 | 0.07 | 0.01 | 96 | 1020.2 | |
| 20260903042319 | 69 | 0.0 | 0.0 | 0.01 | 0.07 | 0.01 | 96 | 1020.2 | |
| 20260903042231 | 69 | 0.0 | 0.0 | 0.01 | 0.07 | 0.01 | 96 | 1020.2 | |
| 20260903042126 | 69 | 0.0 | 0.0 | 0.00 | 0.06 | 0.00 | 96 | 1020.2 | |
| 20260903042042 | 69 | 0.0 | 0.0 | 0.00 | 0.06 | 0.00 | 96 | 1020.2 | |
| 20260903041937 | 69 | 0.0 | 0.0 | 0.00 | 0.06 | 0.00 | 96 | 1020.4 | |
| 20260903041849 | 69 | 0.0 | 0.0 | 0.00 | 0.06 | 0.00 | 96 | 1020.3 | |
| 20260903041725 | 69 | 0.0 | 0.0 | 0.00 | 0.06 | 0.00 | 96 | 1020.4 | |
| 20260903041640 | 69 | 0.0 | 0.0 | 0.00 | 0.06 | 0.00 | 96 | 1020.4 | |
| 20260903041516 | 69 | 0.0 | 0.0 | 0.00 | 0.06 | 0.00 | 96 | 1020.3 | |
| 20260903041427 | 69 | 102 | 0.0 | 1.0 | 0.00 | 0.06 | 0.00 | 96 | 1020.2 |
| 20260903041322 | 69 | 0.0 | 0.0 | 0.00 | 0.06 | 0.00 | 96 | 1020.2 | |
| 20260903041218 | 69 | 0.0 | 0.0 | 0.00 | 0.06 | 0.00 | 96 | 1020.3 | |
| 20260903041130 | 69 | 0.0 | 0.0 | 0.00 | 0.06 | 0.00 | 96 | 1020.4 | |
| 20260903041025 | 69 | 0.0 | 0.0 | 0.00 | 0.06 | 0.00 | 96 | 1020.3 | |
| 20260903040921 | 69 | 0.0 | 0.0 | 0.00 | 0.06 | 0.00 | 96 | 1020.3 | |
| 20260903040816 | 69 | 0.0 | 0.0 | 0.00 | 0.06 | 0.00 | 96 | 1020.4 | |
| 20260903040728 | 69 | 0.0 | 0.0 | 0.00 | 0.06 | 0.00 | 96 | 1020.3 | |
| 20260903040623 | 69 | 0.0 | 0.0 | 0.00 | 0.06 | 0.00 | 96 | 1020.3 | |
| 20260903040519 | 69 | 0.0 | 0.0 | 0.00 | 0.06 | 0.00 | 96 | 1020.4 | |
| 20260903040430 | 69 | 0.0 | 0.0 | 0.00 | 0.06 | 0.00 | 96 | 1020.5 | |
| 20260903040406 | 69 | 0.0 | 0.0 | 0.00 | 0.06 | 0.00 | 96 | 1020.5 | |
| 20260903040221 | 69 | 0.0 | 0.0 | 0.00 | 0.06 | 0.00 | 96 | 1020.5 | |
| 20260903040117 | 69 | 0.0 | 0.0 | 0.00 | 0.06 | 0.00 | 96 | 1020.5 | |
| 20260903040029 | 69 | 0.0 | 0.0 | 0.00 | 0.06 | 0.06 | 96 | 1020.6 | |
| 20260903035924 | 69 | 0.0 | 0.0 | 0.00 | 0.06 | 0.06 | 96 | 1020.5 | |
| 20260903035820 | 69 | 0.0 | 0.0 | 0.00 | 0.06 | 0.06 | 96 | 1020.5 | |
| 20260903035716 | 69 | 0.0 | 0.0 | 0.00 | 0.06 | 0.06 | 96 | 1020.8 | |
| 20260903035627 | 69 | 0.0 | 0.0 | 0.00 | 0.06 | 0.06 | 96 | 1020.5 | |
| 20260903035523 | 69 | 0.0 | 0.0 | 0.00 | 0.06 | 0.06 | 96 | 1020.5 | |
| 20260903035438 | 69 | 0.0 | 0.0 | 0.00 | 0.06 | 0.06 | 96 | 1020.5 | |
| 20260903035330 | 69 | 0.0 | 0.0 | 0.00 | 0.06 | 0.06 | 96 | 1020.4 | |
| 20260903035226 | 69 | 0.0 | 0.0 | 0.00 | 0.06 | 0.06 | 96 | 1020.6 | |
| 20260903035121 | 69 | 0.0 | 0.0 | 0.00 | 0.06 | 0.06 | 96 | 1020.6 | |
| 20260903035017 | 69 | 103 | 0.0 | 1.0 | 0.00 | 0.06 | 0.06 | 96 | 1020.6 |
| 20260903034929 | 69 | 103 | 1.0 | 1.0 | 0.00 | 0.06 | 0.06 | 96 | 1020.7 |
| 20260903034844 | 69 | 102 | 1.0 | 2.0 | 0.00 | 0.06 | 0.06 | 96 | 1020.5 |
| 20260903034719 | 69 | 99 | 1.0 | 1.0 | 0.00 | 0.06 | 0.06 | 96 | 1020.5 |
| 20260903034651 | 69 | 98 | 0.0 | 1.0 | 0.00 | 0.06 | 0.06 | 96 | 1020.5 |
| 20260903034527 | 69 | 0.0 | 0.0 | 0.00 | 0.06 | 0.06 | 96 | 1020.2 | |
| 20260903034422 | 68 | 0.0 | 0.0 | 0.00 | 0.06 | 0.06 | 96 | 1020.2 | |
| 20260903034338 | 69 | 0.0 | 0.0 | 0.00 | 0.06 | 0.06 | 96 | 1020.3 | |
| 20260903034230 | 69 | 0.0 | 0.0 | 0.00 | 0.06 | 0.06 | 96 | 1020.2 | |
| 20260903034125 | 68 | 0.0 | 0.0 | 0.00 | 0.06 | 0.06 | 96 | 1020.2 | |
| 20260903034021 | 68 | 0.0 | 0.0 | 0.00 | 0.06 | 0.06 | 96 | 1020.1 | |
| 20260903033916 | 69 | 0.0 | 0.0 | 0.00 | 0.06 | 0.06 | 96 | 1020.1 | |
| 20260903033828 | 69 | 0.0 | 0.0 | 0.00 | 0.06 | 0.06 | 96 | 1020.2 | |
| 20260903033723 | 68 | 0.0 | 0.0 | 0.00 | 0.06 | 0.06 | 96 | 1020.1 | |
| 20260903033619 | 68 | 0.0 | 0.0 | 0.00 | 0.06 | 0.06 | 96 | 1020.1 | |
| 20260903033551 | 68 | 0.0 | 0.0 | 0.00 | 0.06 | 0.06 | 96 | 1020.1 | |
| 20260903033426 | 68 | 0.0 | 0.0 | 0.00 | 0.06 | 0.06 | 96 | 1020.2 | |
| 20260903033321 | 69 | 0.0 | 0.0 | 0.00 | 0.06 | 0.06 | 96 | 1020.2 | |
| 20260903033217 | 69 | 0.0 | 0.0 | 0.00 | 0.06 | 0.06 | 96 | 1020.2 | |
| 20260903033129 | 68 | 0.0 | 0.0 | 0.00 | 0.06 | 0.06 | 96 | 1020.1 | |
| 20260903033104 | 68 | 0.0 | 0.0 | 0.00 | 0.06 | 0.06 | 96 | 1020.2 | |
| 20260903032920 | 69 | 0.0 | 0.0 | 0.00 | 0.06 | 0.06 | 96 | 1020.3 | |
| 20260903032815 | 68 | 0.0 | 0.0 | 0.00 | 0.06 | 0.06 | 96 | 1020.4 | |
| 20260903032747 | 68 | 0.0 | 0.0 | 0.00 | 0.06 | 0.06 | 96 | 1020.3 | |
| 20260903032622 | 68 | 0.0 | 0.0 | 0.00 | 0.06 | 0.06 | 96 | 1020.4 | |
| 20260903032518 | 68 | 0.0 | 0.0 | 0.00 | 0.06 | 0.06 | 96 | 1020.3 | |
| 20260903032429 | 68 | 0.0 | 0.0 | 0.00 | 0.06 | 0.06 | 96 | 1020.4 | |
| 20260903032325 | 68 | 0.0 | 0.0 | 0.00 | 0.06 | 0.06 | 96 | 1020.3 | |
| 20260903032221 | 68 | 0.0 | 0.0 | 0.00 | 0.06 | 0.06 | 96 | 1020.2 | |
| 20260903032116 | 68 | 0.0 | 0.0 | 0.00 | 0.06 | 0.06 | 96 | 1020.1 | |
| 20260903032048 | 68 | 0.0 | 0.0 | 0.00 | 0.06 | 0.06 | 96 | 1020.4 | |
| 20260903031924 | 68 | 0.0 | 0.0 | 0.00 | 0.06 | 0.06 | 96 | 1020.2 | |
| 20260903031819 | 68 | 0.0 | 0.0 | 0.00 | 0.06 | 0.06 | 96 | 1020.2 | |
| 20260903031715 | 68 | 0.0 | 0.0 | 0.00 | 0.06 | 0.06 | 96 | 1020.4 | |
| 20260903031627 | 68 | 0.0 | 0.0 | 0.00 | 0.06 | 0.06 | 96 | 1020.1 | |
| 20260903031522 | 68 | 0.0 | 0.0 | 0.00 | 0.06 | 0.06 | 96 | 1020.2 | |
| 20260903031418 | 68 | 0.0 | 0.0 | 0.00 | 0.06 | 0.06 | 96 | 1020.2 | |
| 20260903031329 | 68 | 0.0 | 0.0 | 0.00 | 0.06 | 0.06 | 96 | 1020.3 | |
| 20260903031225 | 68 | 0.0 | 0.0 | 0.00 | 0.06 | 0.06 | 96 | 1020.2 | |
| 20260903031120 | 68 | 0.0 | 0.0 | 0.00 | 0.06 | 0.06 | 96 | 1020.2 | |
| 20260903031016 | 68 | 98 | 0.0 | 1.0 | 0.00 | 0.06 | 0.06 | 96 | 1020.5 |
| 20260903030928 | 68 | 98 | 0.0 | 1.0 | 0.00 | 0.06 | 0.06 | 96 | 1020.1 |
| 20260903030823 | 68 | 0.0 | 0.0 | 0.00 | 0.06 | 0.06 | 95 | 1020.0 | |
| 20260903030719 | 68 | 0.0 | 0.0 | 0.00 | 0.06 | 0.06 | 96 | 1020.1 | |
| 20260903030651 | 68 | 0.0 | 0.0 | 0.00 | 0.06 | 0.06 | 96 | 1020.2 | |
| 20260903030526 | 68 | 0.0 | 0.0 | 0.00 | 0.06 | 0.06 | 95 | 1020.2 | |
| 20260903030422 | 68 | 0.0 | 0.0 | 0.00 | 0.06 | 0.06 | 95 | 1020.0 | |
| 20260903030329 | 68 | 0.0 | 0.0 | 0.00 | 0.06 | 0.06 | 95 | 1020.3 | |
| 20260903030124 | 68 | 0.0 | 0.0 | 0.00 | 0.06 | 0.06 | 95 | 1020.2 | |
| 20260903030020 | 68 | 0.0 | 0.0 | 0.00 | 0.06 | 0.06 | 95 | 1020.3 | |
| 20260903025915 | 68 | 0.0 | 0.0 | 0.00 | 0.06 | 0.06 | 95 | 1020.4 | |
| 20260903025827 | 68 | 98 | 0.0 | 1.0 | 0.00 | 0.06 | 0.06 | 95 | 1020.2 |
| 20260903025742 | 68 | 98 | 0.0 | 1.0 | 0.00 | 0.06 | 0.06 | 95 | 1020.4 |
| 20260903025618 | 68 | 0.0 | 0.0 | 0.00 | 0.06 | 0.06 | 95 | 1020.2 | |
| 20260903025530 | 68 | 0.0 | 0.0 | 0.00 | 0.06 | 0.06 | 95 | 1020.0 | |
| 20260903025425 | 68 | 0.0 | 0.0 | 0.00 | 0.06 | 0.06 | 95 | 1020.0 | |
| 20260903025321 | 68 | 0.0 | 0.0 | 0.00 | 0.06 | 0.06 | 95 | 1020.3 | |
| 20260903025236 | 68 | 0.0 | 0.0 | 0.00 | 0.06 | 0.06 | 95 | 1020.1 | |
| 20260903025128 | 68 | 0.0 | 0.0 | 0.00 | 0.06 | 0.06 | 95 | 1020.1 | |
| 20260903025023 | 68 | 0.0 | 0.0 | 0.00 | 0.06 | 0.06 | 95 | 1020.1 | |
| 20260903024919 | 68 | 0.0 | 0.0 | 0.00 | 0.06 | 0.06 | 95 | 1020.2 | |
| 20260903024831 | 68 | 0.0 | 0.0 | 0.00 | 0.06 | 0.06 | 95 | 1020.2 | |
| 20260903024726 | 68 | 0.0 | 0.0 | 0.00 | 0.06 | 0.06 | 95 | 1020.4 | |
| 20260903024622 | 68 | 0.0 | 0.0 | 0.00 | 0.06 | 0.06 | 95 | 1020.3 | |
| 20260903024517 | 68 | 0.0 | 0.0 | 0.00 | 0.06 | 0.06 | 95 | 1020.2 | |
| 20260903024429 | 68 | 0.0 | 0.0 | 0.00 | 0.06 | 0.06 | 95 | 1020.2 | |
| 20260903024325 | 68 | 0.0 | 0.0 | 0.00 | 0.06 | 0.06 | 95 | 1020.2 | |
| 20260903024227 | 68 | 0.0 | 0.0 | 0.00 | 0.06 | 0.06 | 95 | 1020.0 | |
| 20260903023922 | 68 | 0.0 | 0.0 | 0.00 | 0.06 | 0.06 | 95 | 1020.2 | |
| 20260903023818 | 68 | 0.0 | 0.0 | 0.00 | 0.06 | 0.06 | 95 | 1020.2 | |
| 20260903023730 | 68 | 0.0 | 0.0 | 0.00 | 0.06 | 0.06 | 95 | 1020.2 | |
| 20260903023625 | 68 | 0.0 | 0.0 | 0.00 | 0.06 | 0.06 | 95 | 1020.2 | |
| 20260903023521 | 68 | 0.0 | 0.0 | 0.00 | 0.06 | 0.06 | 95 | 1020.3 | |
| 20260903023416 | 68 | 0.0 | 0.0 | 0.00 | 0.06 | 0.06 | 95 | 1020.3 | |
| 20260903023328 | 68 | 0.0 | 0.0 | 0.00 | 0.06 | 0.06 | 95 | 1020.2 | |
| 20260903023223 | 68 | 0.0 | 0.0 | 0.00 | 0.06 | 0.06 | 95 | 1020.3 | |
| 20260903023118 | 68 | 0.0 | 0.0 | 0.00 | 0.06 | 0.06 | 95 | 1020.4 | |
| 20260903023030 | 68 | 0.0 | 0.0 | 0.00 | 0.06 | 0.06 | 95 | 1020.3 | |
| 20260903022925 | 68 | 98 | 0.0 | 1.0 | 0.00 | 0.06 | 0.06 | 95 | 1020.3 |
| 20260903022821 | 68 | 0.0 | 0.0 | 0.00 | 0.06 | 0.06 | 95 | 1020.6 | |
| 20260903022716 | 68 | 97 | 0.0 | 1.0 | 0.00 | 0.06 | 0.06 | 95 | 1020.6 |
| 20260903022647 | 68 | 0.0 | 0.0 | 0.00 | 0.06 | 0.06 | 95 | 1020.5 | |
| 20260903022522 | 68 | 0.0 | 0.0 | 0.00 | 0.06 | 0.06 | 95 | 1020.6 | |
| 20260903022418 | 68 | 0.0 | 0.0 | 0.00 | 0.06 | 0.06 | 95 | 1020.6 | |
| 20260903022329 | 68 | 0.0 | 0.0 | 0.00 | 0.06 | 0.06 | 95 | 1020.6 | |
| 20260903022225 | 68 | 0.0 | 0.0 | 0.00 | 0.06 | 0.06 | 95 | 1020.6 | |
| 20260903022121 | 68 | 0.0 | 0.0 | 0.00 | 0.06 | 0.06 | 95 | 1020.6 | |
| 20260903022016 | 68 | 0.0 | 0.0 | 0.00 | 0.06 | 0.06 | 95 | 1020.6 | |
| 20260903021928 | 68 | 0.0 | 0.0 | 0.00 | 0.06 | 0.06 | 95 | 1020.8 | |
| 20260903021823 | 68 | 0.0 | 0.0 | 0.00 | 0.06 | 0.06 | 95 | 1021.0 | |
| 20260903021719 | 68 | 0.0 | 0.0 | 0.00 | 0.06 | 0.06 | 95 | 1021.0 | |
| 20260903021650 | 68 | 0.0 | 0.0 | 0.00 | 0.06 | 0.06 | 95 | 1020.9 | |
| 20260903021545 | 68 | 0.0 | 0.0 | 0.00 | 0.06 | 0.06 | 95 | 1020.8 | |
| 20260903021421 | 68 | 0.0 | 0.0 | 0.00 | 0.06 | 0.06 | 95 | 1020.7 | |
| 20260903021316 | 68 | 0.0 | 0.0 | 0.00 | 0.06 | 0.06 | 95 | 1020.7 | |
| 20260903021228 | 68 | 0.0 | 0.0 | 0.00 | 0.06 | 0.06 | 95 | 1020.8 | |
| 20260903021123 | 68 | 0.0 | 0.0 | 0.00 | 0.06 | 0.06 | 95 | 1020.8 | |
| 20260903021019 | 68 | 97 | 1.0 | 1.0 | 0.00 | 0.06 | 0.06 | 95 | 1020.9 |
| 20260903020931 | 68 | 97 | 1.0 | 1.0 | 0.00 | 0.06 | 0.06 | 95 | 1020.6 |
| 20260903020826 | 68 | 97 | 1.0 | 1.0 | 0.00 | 0.06 | 0.06 | 95 | 1020.7 |
| 20260903020722 | 68 | 0.0 | 0.0 | 0.00 | 0.06 | 0.06 | 95 | 1020.6 | |
| 20260903020617 | 68 | 98 | 0.0 | 1.0 | 0.00 | 0.06 | 0.06 | 95 | 1020.5 |
| 20260903020549 | 68 | 0.0 | 0.0 | 0.00 | 0.06 | 0.06 | 95 | 1020.4 | |
| 20260903020425 | 68 | 0.0 | 0.0 | 0.00 | 0.06 | 0.06 | 95 | 1020.3 | |
| 20260903020320 | 68 | 0.0 | 0.0 | 0.00 | 0.06 | 0.06 | 95 | 1020.3 | |
| 20260903020215 | 68 | 0.0 | 0.0 | 0.00 | 0.06 | 0.06 | 95 | 1020.4 | |
| 20260903020127 | 68 | 0.0 | 0.0 | 0.00 | 0.06 | 0.06 | 95 | 1020.5 | |
| 20260903020041 | 68 | 0.0 | 0.0 | 0.00 | 0.06 | 0.06 | 95 | 1020.3 | |
| 20260903015916 | 68 | 98 | 1.0 | 1.0 | 0.00 | 0.06 | 0.06 | 95 | 1020.4 |
| 20260903015828 | 68 | 96 | 1.0 | 3.0 | 0.00 | 0.06 | 0.06 | 95 | 1020.3 |
| 20260903015723 | 68 | 95 | 1.0 | 3.0 | 0.00 | 0.06 | 0.06 | 95 | 1020.2 |
| 20260903015639 | 68 | 0.0 | 0.0 | 0.00 | 0.06 | 0.06 | 95 | 1020.0 | |
| 20260903015531 | 68 | 0.0 | 0.0 | 0.00 | 0.06 | 0.06 | 95 | 1020.3 | |
| 20260903015426 | 68 | 96 | 0.0 | 1.0 | 0.00 | 0.06 | 0.06 | 95 | 1020.3 |
| 20260903015322 | 68 | 96 | 0.0 | 1.0 | 0.00 | 0.06 | 0.06 | 95 | 1020.3 |
| 20260903015256 | 68 | 0.0 | 0.0 | 0.00 | 0.06 | 0.06 | 95 | 1020.2 | |
| 20260903015148 | 68 | 96 | 0.0 | 1.0 | 0.00 | 0.06 | 0.06 | 95 | 1020.3 |
| 20260903015024 | 68 | 96 | 0.0 | 1.0 | 0.00 | 0.06 | 0.06 | 95 | 1020.4 |
| 20260903014919 | 68 | 0.0 | 0.0 | 0.00 | 0.06 | 0.06 | 95 | 1020.4 | |
| 20260903014831 | 68 | 0.0 | 0.0 | 0.00 | 0.06 | 0.06 | 95 | 1020.5 | |
| 20260903014726 | 68 | 0.0 | 0.0 | 0.00 | 0.06 | 0.06 | 95 | 1020.3 | |
| 20260903014621 | 68 | 0.0 | 0.0 | 0.00 | 0.06 | 0.06 | 95 | 1020.3 | |
| 20260903014556 | 68 | 0.0 | 0.0 | 0.00 | 0.06 | 0.06 | 95 | 1020.3 | |
| 20260903014428 | 68 | 0.0 | 0.0 | 0.00 | 0.06 | 0.06 | 95 | 1020.3 | |
| 20260903014323 | 68 | 0.0 | 0.0 | 0.00 | 0.06 | 0.06 | 95 | 1020.3 | |
| 20260903014219 | 68 | 96 | 0.0 | 1.0 | 0.00 | 0.06 | 0.06 | 95 | 1020.5 |
| 20260903014131 | 68 | 96 | 0.0 | 1.0 | 0.00 | 0.06 | 0.06 | 95 | 1020.2 |
| 20260903014027 | 68 | 95 | 1.0 | 2.0 | 0.00 | 0.06 | 0.06 | 95 | 1020.4 |
| 20260903013921 | 68 | 96 | 0.0 | 1.0 | 0.00 | 0.06 | 0.06 | 95 | 1020.4 |
| 20260903013816 | 68 | 96 | 0.0 | 1.0 | 0.00 | 0.06 | 0.06 | 95 | 1020.6 |
| 20260903013728 | 68 | 96 | 0.0 | 1.0 | 0.00 | 0.06 | 0.06 | 95 | 1020.4 |
| 20260903013623 | 68 | 96 | 0.0 | 1.0 | 0.00 | 0.06 | 0.06 | 95 | 1020.4 |
| 20260903013518 | 68 | 96 | 1.0 | 1.0 | 0.00 | 0.06 | 0.06 | 95 | 1020.5 |
| 20260903013429 | 68 | 96 | 0.0 | 1.0 | 0.00 | 0.06 | 0.06 | 95 | 1020.6 |
| 20260903013345 | 68 | 0.0 | 0.0 | 0.00 | 0.06 | 0.06 | 95 | 1020.6 | |
| 20260903013239 | 68 | 0.0 | 0.0 | 0.00 | 0.06 | 0.06 | 94 | 1020.8 | |
| 20260903013130 | 68 | 0.0 | 0.0 | 0.00 | 0.06 | 0.06 | 94 | 1020.8 | |
| 20260903013026 | 68 | 0.0 | 0.0 | 0.00 | 0.06 | 0.06 | 94 | 1020.4 | |
| 20260903012921 | 68 | 0.0 | 0.0 | 0.00 | 0.06 | 0.06 | 94 | 1020.6 | |
| 20260903012816 | 68 | 96 | 0.0 | 1.0 | 0.00 | 0.06 | 0.06 | 94 | 1020.8 |
| 20260903012728 | 68 | 95 | 0.0 | 1.0 | 0.00 | 0.06 | 0.06 | 94 | 1020.7 |
| 20260903012623 | 68 | 0.0 | 0.0 | 0.00 | 0.06 | 0.06 | 94 | 1020.6 | |
| 20260903012518 | 68 | 0.0 | 0.0 | 0.00 | 0.06 | 0.06 | 94 | 1020.6 | |
| 20260903012430 | 68 | 0.0 | 0.0 | 0.00 | 0.06 | 0.06 | 94 | 1020.6 | |
| 20260903012346 | 68 | 0.0 | 0.0 | 0.00 | 0.06 | 0.06 | 94 | 1020.6 | |
| 20260903012221 | 68 | 0.0 | 0.0 | 0.00 | 0.06 | 0.06 | 94 | 1020.7 | |
| 20260903012116 | 68 | 0.0 | 0.0 | 0.00 | 0.06 | 0.06 | 94 | 1020.5 | |
| 20260903012108 | 68 | 0.0 | 0.0 | 0.00 | 0.06 | 0.06 | 94 | 1020.7 | |
| 20260903011923 | 68 | 0.0 | 0.0 | 0.00 | 0.06 | 0.06 | 94 | 1020.4 | |
| 20260903011819 | 68 | 0.0 | 0.0 | 0.00 | 0.06 | 0.06 | 94 | 1020.7 | |
| 20260903011731 | 68 | 0.0 | 0.0 | 0.00 | 0.06 | 0.06 | 94 | 1020.6 | |
| 20260903011625 | 68 | 0.0 | 0.0 | 0.00 | 0.06 | 0.06 | 94 | 1020.6 | |
| 20260903011521 | 68 | 0.0 | 0.0 | 0.00 | 0.06 | 0.06 | 94 | 1020.7 | |
| 20260903011417 | 68 | 0.0 | 0.0 | 0.00 | 0.06 | 0.06 | 94 | 1020.8 | |
| 20260903011328 | 68 | 0.0 | 0.0 | 0.00 | 0.06 | 0.06 | 94 | 1020.6 | |
| 20260903011243 | 68 | 0.0 | 0.0 | 0.00 | 0.06 | 0.06 | 94 | 1020.7 | |
| 20260903011138 | 68 | 0.0 | 0.0 | 0.00 | 0.06 | 0.06 | 94 | 1020.6 | |
| 20260903011030 | 68 | 0.0 | 0.0 | 0.00 | 0.06 | 0.06 | 94 | 1020.7 | |
| 20260903010944 | 68 | 0.0 | 0.0 | 0.00 | 0.06 | 0.06 | 94 | 1020.7 | |
| 20260903010820 | 68 | 0.0 | 0.0 | 0.00 | 0.06 | 0.06 | 94 | 1020.7 | |
| 20260903010716 | 68 | 0.0 | 0.0 | 0.00 | 0.06 | 0.06 | 94 | 1020.6 | |
| 20260903010647 | 68 | 0.0 | 0.0 | 0.00 | 0.06 | 0.06 | 94 | 1020.7 | |
| 20260903010522 | 68 | 0.0 | 0.0 | 0.00 | 0.06 | 0.06 | 94 | 1020.9 | |
| 20260903010416 | 68 | 0.0 | 0.0 | 0.00 | 0.06 | 0.06 | 94 | 1020.8 | |
| 20260903010328 | 68 | 0.0 | 0.0 | 0.00 | 0.06 | 0.06 | 94 | 1020.9 | |
| 20260903010223 | 68 | 0.0 | 0.0 | 0.00 | 0.06 | 0.06 | 94 | 1021.0 | |
| 20260903010118 | 68 | 0.0 | 0.0 | 0.00 | 0.06 | 0.06 | 94 | 1021.0 | |
| 20260903010029 | 68 | 0.0 | 0.0 | 0.00 | 0.06 | 0.06 | 94 | 1021.0 | |
| 20260903005924 | 68 | 0.0 | 0.0 | 0.00 | 0.06 | 0.06 | 94 | 1021.0 | |
| 20260903005820 | 68 | 0.0 | 0.0 | 0.00 | 0.06 | 0.06 | 94 | 1021.1 | |
| 20260903005731 | 68 | 0.0 | 0.0 | 0.00 | 0.06 | 0.06 | 94 | 1021.1 | |
| 20260903005626 | 68 | 0.0 | 0.0 | 0.00 | 0.06 | 0.06 | 94 | 1021.0 | |
| 20260903005521 | 68 | 0.0 | 0.0 | 0.00 | 0.06 | 0.06 | 94 | 1021.0 | |
| 20260903005416 | 68 | 0.0 | 0.0 | 0.00 | 0.06 | 0.06 | 94 | 1021.1 | |
| 20260903005327 | 68 | 0.0 | 0.0 | 0.00 | 0.06 | 0.06 | 94 | 1020.9 | |
| 20260903005222 | 68 | 0.0 | 0.0 | 0.00 | 0.06 | 0.06 | 94 | 1021.0 | |
| 20260903005119 | 68 | 0.0 | 0.0 | 0.00 | 0.06 | 0.06 | 93 | 1021.0 | |
| 20260903005030 | 68 | 0.0 | 0.0 | 0.00 | 0.06 | 0.06 | 93 | 1020.9 | |
| 20260903004925 | 68 | 0.0 | 0.0 | 0.00 | 0.06 | 0.06 | 93 | 1021.0 | |
| 20260903004820 | 68 | 0.0 | 0.0 | 0.00 | 0.06 | 0.06 | 93 | 1020.9 | |
| 20260903004715 | 68 | 0.0 | 0.0 | 0.00 | 0.06 | 0.06 | 93 | 1021.0 | |
| 20260903004627 | 68 | 101 | 0.0 | 1.0 | 0.00 | 0.06 | 0.06 | 93 | 1020.9 |
| 20260903004542 | 68 | 101 | 0.0 | 1.0 | 0.00 | 0.06 | 0.06 | 93 | 1021.0 |
| 20260903004417 | 68 | 101 | 0.0 | 1.0 | 0.00 | 0.06 | 0.06 | 93 | 1021.0 |
| 20260903004329 | 68 | 101 | 0.0 | 1.0 | 0.00 | 0.06 | 0.06 | 93 | 1021.1 |
| 20260903004224 | 68 | 0.0 | 0.0 | 0.00 | 0.06 | 0.06 | 93 | 1021.2 | |
| 20260903004119 | 68 | 0.0 | 0.0 | 0.00 | 0.06 | 0.06 | 93 | 1021.1 | |
| 20260903004030 | 68 | 0.0 | 0.0 | 0.00 | 0.06 | 0.06 | 93 | 1021.2 | |
| 20260903003925 | 68 | 0.0 | 0.0 | 0.00 | 0.06 | 0.06 | 93 | 1021.0 | |
| 20260903003820 | 68 | 0.0 | 0.0 | 0.00 | 0.06 | 0.06 | 93 | 1021.0 | |
| 20260903003716 | 68 | 0.0 | 0.0 | 0.00 | 0.06 | 0.06 | 93 | 1021.2 | |
| 20260903003628 | 68 | 0.0 | 0.0 | 0.00 | 0.06 | 0.06 | 93 | 1021.2 | |
| 20260903003523 | 68 | 0.0 | 0.0 | 0.00 | 0.06 | 0.06 | 93 | 1021.0 | |
| 20260903003419 | 68 | 0.0 | 0.0 | 0.00 | 0.06 | 0.06 | 93 | 1021.1 | |
| 20260903003330 | 68 | 0.0 | 0.0 | 0.00 | 0.06 | 0.06 | 92 | 1021.0 | |
| 20260903003246 | 68 | 0.0 | 0.0 | 0.00 | 0.06 | 0.06 | 92 | 1021.1 | |
| 20260903003121 | 68 | 0.0 | 0.0 | 0.00 | 0.06 | 0.06 | 92 | 1021.1 | |
| 20260903003056 | 68 | 0.0 | 0.0 | 0.00 | 0.06 | 0.06 | 92 | 1021.2 | |
| 20260903002928 | 68 | 0.0 | 0.0 | 0.00 | 0.06 | 0.06 | 92 | 1021.0 | |
| 20260903002824 | 68 | 0.0 | 0.0 | 0.00 | 0.06 | 0.06 | 92 | 1021.0 | |
| 20260903002719 | 68 | 0.0 | 0.0 | 0.00 | 0.06 | 0.06 | 92 | 1021.0 | |
| 20260903002631 | 68 | 0.0 | 0.0 | 0.00 | 0.06 | 0.06 | 92 | 1021.1 | |
| 20260903002526 | 68 | 0.0 | 0.0 | 0.00 | 0.06 | 0.06 | 92 | 1021.0 | |
| 20260903002422 | 68 | 0.0 | 0.0 | 0.00 | 0.06 | 0.06 | 92 | 1021.1 | |
| 20260903002317 | 68 | 101 | 0.0 | 1.0 | 0.00 | 0.06 | 0.06 | 92 | 1021.0 |
| 20260903002228 | 68 | 99 | 1.0 | 2.0 | 0.00 | 0.06 | 0.06 | 92 | 1021.0 |
| 20260903002123 | 68 | 0.0 | 0.0 | 0.00 | 0.06 | 0.06 | 92 | 1020.9 | |
| 20260903002018 | 68 | 88 | 0.0 | 1.0 | 0.00 | 0.06 | 0.06 | 92 | 1021.0 |
| 20260903001930 | 68 | 82 | 3.0 | 6.0 | 0.00 | 0.06 | 0.06 | 92 | 1021.1 |
| 20260903001826 | 68 | 75 | 0.0 | 1.0 | 0.00 | 0.06 | 0.06 | 92 | 1020.8 |
| 20260903001721 | 69 | 73 | 1.0 | 1.0 | 0.00 | 0.06 | 0.06 | 92 | 1020.7 |
| 20260903001616 | 69 | 73 | 1.0 | 1.0 | 0.00 | 0.06 | 0.06 | 92 | 1020.9 |
| 20260903001548 | 69 | 73 | 1.0 | 1.0 | 0.00 | 0.06 | 0.06 | 92 | 1020.7 |
| 20260903001423 | 69 | 73 | 1.0 | 1.0 | 0.00 | 0.06 | 0.06 | 92 | 1020.6 |
| 20260903001338 | 69 | 73 | 0.0 | 1.0 | 0.00 | 0.06 | 0.06 | 92 | 1020.6 |
| 20260903001230 | 69 | 0.0 | 0.0 | 0.00 | 0.06 | 0.06 | 92 | 1020.9 | |
| 20260903001125 | 69 | 73 | 1.0 | 2.0 | 0.00 | 0.06 | 0.06 | 91 | 1020.9 |
| 20260903001021 | 69 | 84 | 1.0 | 2.0 | 0.00 | 0.06 | 0.06 | 91 | 1020.8 |
| 20260903000936 | 69 | 77 | 0.0 | 1.0 | 0.00 | 0.06 | 0.06 | 91 | 1020.8 |
| 20260903000827 | 69 | 78 | 1.0 | 1.0 | 0.00 | 0.06 | 0.06 | 92 | 1020.7 |
| 20260903000722 | 69 | 78 | 1.0 | 1.0 | 0.00 | 0.06 | 0.06 | 92 | 1020.7 |
| 20260903000617 | 69 | 78 | 0.0 | 1.0 | 0.00 | 0.06 | 0.06 | 91 | 1020.7 |
| 20260903000528 | 69 | 79 | 2.0 | 3.0 | 0.00 | 0.06 | 0.06 | 91 | 1020.6 |
| 20260903000424 | 69 | 87 | 2.0 | 3.0 | 0.00 | 0.06 | 0.06 | 91 | 1020.6 |
| 20260903000319 | 69 | 114 | 0.0 | 1.0 | 0.00 | 0.06 | 0.06 | 91 | 1020.8 |
| 20260903000233 | 69 | 114 | 1.0 | 3.0 | 0.00 | 0.06 | 0.06 | 91 | 1020.7 |
| 20260903000125 | 69 | 104 | 1.0 | 1.0 | 0.00 | 0.06 | 0.06 | 91 | 1020.6 |
| 20260903000020 | 69 | 95 | 2.0 | 3.0 | 0.00 | 0.06 | 0.06 | 91 | 1020.6 |
| 20260902235916 | 69 | 86 | 2.0 | 4.0 | 0.00 | 0.06 | 0.06 | 91 | 1020.4 |
| 20260902235827 | 69 | 103 | 1.0 | 3.0 | 0.00 | 0.06 | 0.06 | 91 | 1020.6 |
| 20260902235723 | 69 | 92 | 3.0 | 4.0 | 0.00 | 0.06 | 0.06 | 91 | 1020.4 |
| 20260902235617 | 69 | 95 | 0.0 | 1.0 | 0.00 | 0.06 | 0.06 | 91 | 1020.4 |
| 20260902235529 | 69 | 95 | 1.0 | 2.0 | 0.00 | 0.06 | 0.06 | 91 | 1020.6 |
| 20260902235424 | 69 | 94 | 1.0 | 3.0 | 0.00 | 0.06 | 0.06 | 91 | 1020.5 |
| 20260902235320 | 69 | 87 | 3.0 | 3.0 | 0.00 | 0.06 | 0.06 | 91 | 1020.5 |
| 20260902235231 | 69 | 76 | 1.0 | 3.0 | 0.00 | 0.06 | 0.06 | 91 | 1020.7 |
| 20260902235126 | 69 | 86 | 1.0 | 1.0 | 0.00 | 0.06 | 0.06 | 91 | 1020.3 |
| 20260902235101 | 69 | 0.0 | 0.0 | 0.00 | 0.06 | 0.06 | 91 | 1020.3 | |
| 20260902234917 | 69 | 88 | 0.0 | 1.0 | 0.00 | 0.06 | 0.06 | 91 | 1020.6 |
| 20260902234828 | 69 | 0.0 | 0.0 | 0.00 | 0.07 | 0.06 | 91 | 1020.6 | |
| 20260902234724 | 69 | 0.0 | 0.0 | 0.00 | 0.07 | 0.06 | 91 | 1020.6 | |
| 20260902234640 | 69 | 86 | 1.0 | 2.0 | 0.00 | 0.08 | 0.06 | 90 | 1020.6 |
| 20260902234551 | 69 | 85 | 1.0 | 2.0 | 0.00 | 0.09 | 0.06 | 91 | 1020.5 |
| 20260902234426 | 69 | 88 | 0.0 | 1.0 | 0.00 | 0.10 | 0.06 | 91 | 1020.5 |
| 20260902234322 | 69 | 88 | 1.0 | 1.0 | 0.00 | 0.11 | 0.06 | 91 | 1020.4 |
| 20260902234217 | 69 | 89 | 1.0 | 2.0 | 0.00 | 0.12 | 0.06 | 90 | 1020.6 |
| 20260902234129 | 69 | 0.0 | 0.0 | 0.00 | 0.13 | 0.06 | 90 | 1020.6 | |
| 20260902234025 | 69 | 119 | 0.0 | 1.0 | 0.00 | 0.13 | 0.06 | 90 | 1020.6 |
| 20260902233940 | 69 | 119 | 1.0 | 3.0 | 0.00 | 0.13 | 0.06 | 91 | 1020.6 |
| 20260902233831 | 69 | 93 | 1.0 | 2.0 | 0.00 | 0.15 | 0.06 | 91 | 1020.5 |
| 20260902233726 | 69 | 90 | 1.0 | 2.0 | 0.00 | 0.18 | 0.06 | 91 | 1020.4 |
| 20260902233622 | 69 | 134 | 0.0 | 1.0 | 0.00 | 0.20 | 0.06 | 91 | 1020.4 |
| 20260902233517 | 69 | 0.0 | 0.0 | 0.00 | 0.27 | 0.06 | 90 | 1020.3 | |
| 20260902233428 | 69 | 0.0 | 0.0 | 0.00 | 0.29 | 0.06 | 91 | 1020.5 | |
| 20260902233323 | 69 | 137 | 1.0 | 2.0 | 0.00 | 0.29 | 0.06 | 91 | 1020.4 |
| 20260902233238 | 69 | 132 | 2.0 | 3.0 | 0.00 | 0.30 | 0.06 | 91 | 1020.3 |
| 20260902233129 | 69 | 71 | 1.0 | 3.0 | 0.00 | 0.31 | 0.06 | 91 | 1020.4 |
| 20260902233105 | 69 | 61 | 1.0 | 2.0 | 0.00 | 0.32 | 0.06 | 90 | 1020.5 |
| 20260902232940 | 69 | 77 | 1.0 | 1.0 | 0.00 | 0.33 | 0.06 | 90 | 1020.5 |
| 20260902232816 | 69 | 77 | 1.0 | 2.0 | 0.00 | 0.35 | 0.06 | 90 | 1020.4 |
| 20260902232727 | 69 | 78 | 4.0 | 6.0 | 0.00 | 0.35 | 0.06 | 90 | 1020.3 |
| 20260902232622 | 69 | 111 | 2.0 | 7.0 | 0.00 | 0.37 | 0.06 | 90 | 1020.2 |
| 20260902232518 | 69 | 136 | 1.0 | 1.0 | 0.00 | 0.38 | 0.06 | 90 | 1020.2 |
| 20260902232429 | 69 | 136 | 0.0 | 1.0 | 0.00 | 0.39 | 0.06 | 90 | 1020.4 |
| 20260902232325 | 69 | 0.0 | 0.0 | 0.00 | 0.40 | 0.06 | 90 | 1020.4 | |
| 20260902232220 | 69 | 136 | 1.0 | 1.0 | 0.00 | 0.44 | 0.06 | 90 | 1020.2 |
| 20260902232136 | 69 | 136 | 1.0 | 2.0 | 0.00 | 0.44 | 0.06 | 90 | 1020.3 |
| 20260902232027 | 69 | 119 | 3.0 | 4.0 | 0.00 | 0.46 | 0.06 | 90 | 1020.1 |
| 20260902231922 | 69 | 108 | 3.0 | 4.0 | 0.00 | 0.48 | 0.06 | 90 | 1020.1 |
| 20260902231817 | 69 | 104 | 3.0 | 4.0 | 0.00 | 0.52 | 0.06 | 90 | 1020.1 |
| 20260902231729 | 69 | 115 | 2.0 | 3.0 | 0.00 | 0.54 | 0.06 | 90 | 1020.2 |
| 20260902231625 | 69 | 80 | 1.0 | 3.0 | 0.00 | 0.56 | 0.06 | 90 | 1020.2 |
| 20260902231531 | 69 | 124 | 0.0 | 1.0 | 0.00 | 0.61 | 0.06 | 90 | 1020.2 |
| 20260902231326 | 69 | 0.0 | 0.0 | 0.00 | 0.69 | 0.06 | 89 | 1020.1 | |
| 20260902231221 | 69 | 119 | 1.0 | 2.0 | 0.00 | 0.77 | 0.06 | 89 | 1020.2 |
| 20260902231117 | 69 | 104 | 3.0 | 4.0 | 0.00 | 0.84 | 0.06 | 89 | 1020.3 |
| 20260902231028 | 69 | 94 | 1.0 | 2.0 | 0.00 | 0.88 | 0.06 | 89 | 1020.1 |
| 20260902230924 | 69 | 0.0 | 0.0 | 0.00 | 0.88 | 0.06 | 89 | 1020.3 | |
| 20260902230819 | 69 | 91 | 0.0 | 1.0 | 0.00 | 0.88 | 0.06 | 89 | 1020.4 |
| 20260902230731 | 69 | 85 | 2.0 | 3.0 | 0.00 | 0.88 | 0.06 | 89 | 1020.2 |
| 20260902230626 | 69 | 100 | 2.0 | 3.0 | 0.00 | 0.88 | 0.06 | 89 | 1020.3 |
| 20260902230521 | 69 | 112 | 3.0 | 4.0 | 0.00 | 0.88 | 0.06 | 89 | 1020.3 |
| 20260902230457 | 69 | 119 | 2.0 | 3.0 | 0.00 | 0.88 | 0.06 | 89 | 1020.3 |
| 20260902230329 | 69 | 71 | 3.0 | 8.0 | 0.00 | 0.88 | 0.06 | 89 | 1020.2 |
| 20260902230244 | 69 | 106 | 2.0 | 3.0 | 0.00 | 0.88 | 0.06 | 90 | 1020.3 |
| 20260902230119 | 69 | 78 | 1.0 | 3.0 | 0.00 | 0.88 | 0.06 | 90 | 1020.4 |
| 20260902230051 | 69 | 137 | 1.0 | 2.0 | 0.00 | 0.88 | 0.06 | 90 | 1020.4 |
| 20260902225926 | 69 | 153 | 2.0 | 3.0 | 0.00 | 0.88 | 0.06 | 90 | 1020.4 |
| 20260902225841 | 69 | 137 | 1.0 | 4.0 | 0.00 | 0.88 | 0.06 | 90 | 1020.3 |
| 20260902225716 | 69 | 0.0 | 0.0 | 0.00 | 0.88 | 0.06 | 90 | 1020.3 | |
| 20260902225647 | 69 | 139 | 0.0 | 1.0 | 0.00 | 0.88 | 0.06 | 90 | 1020.2 |
| 20260902225522 | 69 | 139 | 2.0 | 3.0 | 0.00 | 0.88 | 0.06 | 89 | 1020.1 |
| 20260902225417 | 69 | 84 | 4.0 | 8.0 | 0.00 | 0.88 | 0.06 | 89 | 1020.3 |
| 20260902225328 | 69 | 152 | 1.0 | 3.0 | 0.00 | 0.88 | 0.06 | 89 | 1020.3 |
| 20260902225306 | 69 | 102 | 3.0 | 4.0 | 0.00 | 0.88 | 0.06 | 89 | 1020.3 |
| 20260902225119 | 69 | 115 | 2.0 | 3.0 | 0.00 | 0.88 | 0.06 | 89 | 1020.6 |
| 20260902225030 | 69 | 81 | 2.0 | 3.0 | 0.00 | 0.88 | 0.06 | 89 | 1020.6 |
| 20260902224946 | 69 | 115 | 1.0 | 1.0 | 0.00 | 0.88 | 0.06 | 89 | 1020.6 |
| 20260902224822 | 69 | 115 | 1.0 | 3.0 | 0.00 | 0.88 | 0.06 | 89 | 1020.6 |
| 20260902224717 | 69 | 97 | 2.0 | 2.0 | 0.00 | 0.88 | 0.06 | 89 | 1020.6 |
| 20260902224628 | 69 | 75 | 0.0 | 1.0 | 0.00 | 0.88 | 0.06 | 89 | 1020.7 |
| 20260902224523 | 69 | 75 | 1.0 | 1.0 | 0.00 | 0.88 | 0.06 | 88 | 1020.7 |
| 20260902224459 | 69 | 75 | 1.0 | 1.0 | 0.00 | 0.88 | 0.06 | 88 | 1020.7 |
| 20260902224330 | 69 | 91 | 2.0 | 3.0 | 0.00 | 0.88 | 0.06 | 88 | 1020.7 |
| 20260902224226 | 70 | 99 | 2.0 | 3.0 | 0.00 | 0.88 | 0.06 | 88 | 1020.7 |
| 20260902224121 | 70 | 99 | 2.0 | 3.0 | 0.00 | 0.88 | 0.06 | 88 | 1020.7 |
| 20260902224016 | 70 | 104 | 2.0 | 4.0 | 0.00 | 0.88 | 0.06 | 88 | 1020.7 |
| 20260902223927 | 70 | 91 | 3.0 | 8.0 | 0.00 | 0.88 | 0.06 | 88 | 1020.7 |
| 20260902223823 | 70 | 82 | 3.0 | 7.0 | 0.00 | 0.88 | 0.06 | 88 | 1020.7 |
| 20260902223718 | 70 | 124 | 1.0 | 2.0 | 0.00 | 0.88 | 0.06 | 87 | 1020.9 |
| 20260902223629 | 70 | 123 | 2.0 | 2.0 | 0.00 | 0.88 | 0.06 | 89 | 1020.9 |
| 20260902223524 | 70 | 92 | 2.0 | 4.0 | 0.00 | 0.88 | 0.06 | 88 | 1021.0 |
| 20260902223419 | 70 | 107 | 1.0 | 2.0 | 0.00 | 0.88 | 0.06 | 88 | 1020.9 |
| 20260902223331 | 70 | 117 | 2.0 | 3.0 | 0.00 | 0.88 | 0.06 | 88 | 1020.9 |
| 20260902223226 | 70 | 100 | 2.0 | 4.0 | 0.00 | 0.88 | 0.06 | 88 | 1020.9 |
| 20260902223120 | 70 | 108 | 1.0 | 1.0 | 0.00 | 0.88 | 0.06 | 88 | 1021.0 |
| 20260902223036 | 70 | 111 | 1.0 | 2.0 | 0.00 | 0.88 | 0.06 | 89 | 1020.9 |
| 20260902222947 | 70 | 112 | 1.0 | 1.0 | 0.00 | 0.88 | 0.06 | 88 | 1020.8 |
| 20260902222842 | 70 | 105 | 2.0 | 4.0 | 0.00 | 0.88 | 0.06 | 88 | 1020.8 |
| 20260902222718 | 70 | 91 | 3.0 | 6.0 | 0.00 | 0.88 | 0.06 | 88 | 1020.8 |
| 20260902222629 | 70 | 92 | 1.0 | 1.0 | 0.00 | 0.88 | 0.06 | 87 | 1020.6 |
| 20260902222525 | 70 | 94 | 1.0 | 2.0 | 0.00 | 0.88 | 0.06 | 87 | 1020.8 |
| 20260902222420 | 70 | 98 | 1.0 | 2.0 | 0.00 | 0.88 | 0.06 | 87 | 1020.8 |
| 20260902222335 | 70 | 87 | 2.0 | 2.0 | 0.00 | 0.88 | 0.06 | 87 | 1020.9 |
| 20260902222227 | 70 | 97 | 2.0 | 4.0 | 0.00 | 0.88 | 0.06 | 87 | 1020.8 |
| 20260902222123 | 70 | 109 | 3.0 | 4.0 | 0.00 | 0.88 | 0.06 | 87 | 1020.9 |
| 20260902222017 | 70 | 100 | 2.0 | 4.0 | 0.00 | 0.88 | 0.06 | 88 | 1021.0 |
| 20260902221929 | 70 | 81 | 3.0 | 6.0 | 0.00 | 0.88 | 0.06 | 88 | 1020.9 |
| 20260902221824 | 70 | 87 | 2.0 | 4.0 | 0.00 | 0.88 | 0.06 | 88 | 1021.0 |
| 20260902221720 | 70 | 100 | 2.0 | 3.0 | 0.00 | 0.88 | 0.06 | 88 | 1021.2 |
| 20260902221616 | 70 | 98 | 1.0 | 1.0 | 0.00 | 0.88 | 0.06 | 88 | 1021.0 |
| 20260902221527 | 70 | 104 | 2.0 | 3.0 | 0.00 | 0.88 | 0.06 | 89 | 1021.1 |
| 20260902221443 | 70 | 95 | 0.0 | 1.0 | 0.00 | 0.88 | 0.06 | 88 | 1021.1 |
| 20260902221317 | 70 | 99 | 1.0 | 2.0 | 0.00 | 0.88 | 0.06 | 88 | 1021.2 |
| 20260902221229 | 70 | 109 | 1.0 | 1.0 | 0.00 | 0.88 | 0.06 | 88 | 1021.1 |
| 20260902221124 | 70 | 103 | 1.0 | 2.0 | 0.00 | 0.88 | 0.06 | 88 | 1021.1 |
| 20260902221019 | 70 | 102 | 1.0 | 4.0 | 0.00 | 0.88 | 0.06 | 89 | 1021.1 |
| 20260902220950 | 70 | 0.0 | 0.0 | 0.00 | 0.88 | 0.06 | 89 | 1021.2 | |
| 20260902220825 | 70 | 81 | 0.0 | 1.0 | 0.00 | 0.88 | 0.06 | 89 | 1021.0 |
| 20260902220721 | 70 | 82 | 0.0 | 1.0 | 0.00 | 0.88 | 0.06 | 89 | 1021.0 |
| 20260902220616 | 70 | 80 | 2.0 | 4.0 | 0.00 | 0.88 | 0.06 | 88 | 1021.0 |
| 20260902220527 | 70 | 81 | 3.0 | 6.0 | 0.00 | 0.88 | 0.06 | 88 | 1020.9 |
| 20260902220422 | 70 | 87 | 2.0 | 4.0 | 0.00 | 0.88 | 0.06 | 89 | 1021.1 |
| 20260902220337 | 70 | 104 | 2.0 | 4.0 | 0.00 | 0.88 | 0.06 | 90 | 1021.0 |
| 20260902220229 | 70 | 79 | 1.0 | 4.0 | 0.00 | 0.88 | 0.06 | 90 | 1021.1 |
| 20260902220124 | 70 | 97 | 1.0 | 1.0 | 0.00 | 0.88 | 0.06 | 90 | 1021.1 |
| 20260902220019 | 70 | 97 | 0.0 | 1.0 | 0.00 | 0.88 | 0.06 | 90 | 1021.1 |
| 20260902215930 | 70 | 0.0 | 0.0 | 0.00 | 0.88 | 0.06 | 90 | 1021.0 | |
| 20260902215825 | 70 | 97 | 1.0 | 2.0 | 0.00 | 0.88 | 0.06 | 89 | 1020.9 |
| 20260902215721 | 70 | 84 | 2.0 | 3.0 | 0.00 | 0.88 | 0.06 | 89 | 1021.2 |
| 20260902215616 | 70 | 97 | 1.0 | 2.0 | 0.00 | 0.88 | 0.06 | 89 | 1021.3 |
| 20260902215528 | 70 | 99 | 1.0 | 2.0 | 0.00 | 0.88 | 0.06 | 90 | 1020.9 |
| 20260902215423 | 70 | 94 | 1.0 | 2.0 | 0.00 | 0.88 | 0.06 | 90 | 1020.9 |
| 20260902215359 | 70 | 91 | 1.0 | 2.0 | 0.00 | 0.88 | 0.06 | 89 | 1021.1 |
| 20260902215230 | 70 | 91 | 0.0 | 1.0 | 0.00 | 0.88 | 0.06 | 89 | 1021.2 |
| 20260902215126 | 70 | 91 | 1.0 | 1.0 | 0.00 | 0.88 | 0.06 | 89 | 1021.2 |
| 20260902215022 | 70 | 90 | 2.0 | 3.0 | 0.00 | 0.88 | 0.06 | 89 | 1021.2 |
| 20260902214917 | 70 | 81 | 0.0 | 1.0 | 0.00 | 0.88 | 0.06 | 89 | 1021.3 |
| 20260902214829 | 70 | 81 | 1.0 | 2.0 | 0.00 | 0.88 | 0.06 | 89 | 1021.3 |
| 20260902214724 | 70 | 83 | 2.0 | 3.0 | 0.00 | 0.88 | 0.06 | 89 | 1021.2 |
| 20260902214619 | 70 | 73 | 1.0 | 3.0 | 0.00 | 0.88 | 0.06 | 89 | 1021.2 |
| 20260902214550 | 70 | 75 | 1.0 | 2.0 | 0.00 | 0.88 | 0.06 | 89 | 1021.2 |
| 20260902214425 | 70 | 96 | 3.0 | 7.0 | 0.00 | 0.88 | 0.06 | 89 | 1021.3 |
| 20260902214320 | 70 | 87 | 1.0 | 4.0 | 0.00 | 0.88 | 0.06 | 89 | 1021.3 |
| 20260902214231 | 70 | 86 | 1.0 | 2.0 | 0.00 | 0.88 | 0.06 | 89 | 1021.4 |
| 20260902214126 | 70 | 98 | 2.0 | 3.0 | 0.00 | 0.88 | 0.06 | 89 | 1021.5 |
| 20260902214020 | 70 | 82 | 2.0 | 2.0 | 0.00 | 0.88 | 0.06 | 89 | 1021.2 |
| 20260902213916 | 70 | 108 | 2.0 | 3.0 | 0.00 | 0.88 | 0.06 | 89 | 1021.5 |
| 20260902213828 | 70 | 126 | 1.0 | 2.0 | 0.00 | 0.88 | 0.06 | 89 | 1021.3 |
| 20260902213723 | 70 | 0.0 | 0.0 | 0.00 | 0.88 | 0.06 | 89 | 1021.4 | |
| 20260902213617 | 70 | 79 | 3.0 | 6.0 | 0.00 | 0.88 | 0.06 | 89 | 1021.3 |
| 20260902213528 | 70 | 94 | 3.0 | 6.0 | 0.00 | 0.88 | 0.06 | 90 | 1021.2 |
| 20260902213423 | 70 | 86 | 0.0 | 1.0 | 0.00 | 0.88 | 0.06 | 90 | 1021.2 |
| 20260902213318 | 70 | 0.0 | 0.0 | 0.00 | 0.88 | 0.06 | 90 | 1021.5 | |
| 20260902213230 | 70 | 89 | 1.0 | 2.0 | 0.00 | 0.88 | 0.06 | 90 | 1021.2 |
| 20260902213125 | 70 | 73 | 0.0 | 1.0 | 0.00 | 0.88 | 0.06 | 90 | 1021.2 |
| 20260902213021 | 70 | 73 | 1.0 | 1.0 | 0.00 | 0.88 | 0.06 | 90 | 1021.4 |
| 20260902212915 | 70 | 73 | 0.0 | 1.0 | 0.00 | 0.88 | 0.06 | 90 | 1021.2 |
| 20260902212827 | 70 | 73 | 0.0 | 1.0 | 0.00 | 0.88 | 0.06 | 90 | 1021.2 |
| 20260902212723 | 70 | 0.0 | 0.0 | 0.00 | 0.88 | 0.06 | 90 | 1021.3 | |
| 20260902212618 | 70 | 74 | 1.0 | 2.0 | 0.00 | 0.88 | 0.06 | 90 | 1021.3 |
| 20260902212530 | 70 | 72 | 2.0 | 4.0 | 0.00 | 0.88 | 0.06 | 90 | 1021.2 |
| 20260902212425 | 70 | 77 | 0.0 | 2.0 | 0.00 | 0.88 | 0.06 | 90 | 1021.0 |
| 20260902212340 | 70 | 74 | 1.0 | 1.0 | 0.00 | 0.88 | 0.06 | 90 | 1021.3 |
| 20260902212215 | 70 | 74 | 0.0 | 1.0 | 0.00 | 0.88 | 0.06 | 90 | 1021.2 |
| 20260902212127 | 70 | 74 | 1.0 | 1.0 | 0.00 | 0.88 | 0.06 | 90 | 1021.2 |
| 20260902212022 | 70 | 74 | 0.0 | 1.0 | 0.00 | 0.88 | 0.06 | 90 | 1021.3 |
| 20260902211917 | 70 | 74 | 1.0 | 2.0 | 0.00 | 0.88 | 0.06 | 90 | 1021.3 |
| 20260902211829 | 70 | 74 | 0.0 | 1.0 | 0.00 | 0.88 | 0.06 | 90 | 1021.4 |
| 20260902211724 | 70 | 74 | 0.0 | 1.0 | 0.00 | 0.88 | 0.06 | 91 | 1021.3 |
| 20260902211620 | 70 | 74 | 0.0 | 1.0 | 0.00 | 0.88 | 0.06 | 90 | 1021.3 |
| 20260902211535 | 70 | 74 | 0.0 | 1.0 | 0.00 | 0.88 | 0.06 | 91 | 1021.2 |
| 20260902211447 | 70 | 74 | 1.0 | 2.0 | 0.00 | 0.88 | 0.06 | 92 | 1021.2 |
| 20260902211323 | 70 | 73 | 0.0 | 2.0 | 0.00 | 0.88 | 0.06 | 92 | 1021.2 |
| 20260902211238 | 70 | 0.0 | 0.0 | 0.00 | 0.88 | 0.06 | 92 | 1021.4 | |
| 20260902211150 | 70 | 72 | 0.0 | 1.0 | 0.00 | 0.88 | 0.06 | 92 | 1021.0 |
| 20260902211025 | 70 | 73 | 0.0 | 1.0 | 0.00 | 0.88 | 0.06 | 91 | 1021.2 |
| 20260902210921 | 70 | 74 | 0.0 | 1.0 | 0.00 | 0.88 | 0.06 | 91 | 1021.1 |
| 20260902210849 | 70 | 0.0 | 0.0 | 0.00 | 0.88 | 0.06 | 91 | 1021.0 | |
| 20260902210644 | 70 | 0.0 | 0.0 | 0.00 | 0.88 | 0.06 | 91 | 1021.0 | |
| 20260902210519 | 70 | 73 | 0.0 | 1.0 | 0.00 | 0.88 | 0.06 | 91 | 1021.0 |
| 20260902210431 | 70 | 74 | 1.0 | 2.0 | 0.00 | 0.88 | 0.06 | 90 | 1021.0 |
| 20260902210327 | 70 | 73 | 1.0 | 1.0 | 0.00 | 0.88 | 0.06 | 90 | 1021.1 |
| 20260902210222 | 70 | 73 | 1.0 | 1.0 | 0.00 | 0.88 | 0.06 | 90 | 1021.1 |
| 20260902210138 | 70 | 74 | 1.0 | 2.0 | 0.00 | 0.88 | 0.06 | 91 | 1021.2 |
| 20260902210049 | 70 | 74 | 1.0 | 2.0 | 0.00 | 0.88 | 0.06 | 91 | 1021.3 |
| 20260902205925 | 70 | 70 | 3.0 | 3.0 | 0.00 | 0.88 | 0.06 | 91 | 1021.2 |
| 20260902205840 | 70 | 76 | 1.0 | 4.0 | 0.00 | 0.88 | 0.06 | 91 | 1021.2 |
| 20260902205716 | 70 | 90 | 2.0 | 4.0 | 0.00 | 0.88 | 0.06 | 92 | 1021.3 |
| 20260902205628 | 70 | 83 | 1.0 | 4.0 | 0.00 | 0.88 | 0.06 | 92 | 1021.2 |
| 20260902205543 | 70 | 98 | 1.0 | 1.0 | 0.00 | 0.88 | 0.06 | 91 | 1021.1 |
| 20260902205459 | 70 | 98 | 0.0 | 1.0 | 0.00 | 0.88 | 0.06 | 91 | 1021.3 |
| 20260902205330 | 70 | 98 | 0.0 | 1.0 | 0.00 | 0.88 | 0.06 | 91 | 1021.1 |
| 20260902205226 | 70 | 0.0 | 0.0 | 0.00 | 0.88 | 0.06 | 92 | 1021.2 | |
| 20260902205141 | 70 | 98 | 1.0 | 1.0 | 0.00 | 0.88 | 0.06 | 92 | 1021.2 |
| 20260902205016 | 70 | 99 | 1.0 | 2.0 | 0.00 | 0.88 | 0.06 | 92 | 1021.2 |
| 20260902204927 | 70 | 98 | 1.0 | 1.0 | 0.00 | 0.88 | 0.06 | 91 | 1021.0 |
| 20260902204823 | 70 | 97 | 0.0 | 1.0 | 0.00 | 0.88 | 0.06 | 91 | 1020.9 |
| 20260902204819 | 70 | 97 | 0.0 | 1.0 | 0.00 | 0.88 | 0.06 | 91 | 1021.0 |
| 20260902204630 | 70 | 97 | 0.0 | 1.0 | 0.00 | 0.88 | 0.06 | 91 | 1021.0 |
| 20260902204526 | 70 | 97 | 2.0 | 2.0 | 0.00 | 0.88 | 0.06 | 91 | 1020.9 |
| 20260902204421 | 70 | 105 | 1.0 | 3.0 | 0.00 | 0.88 | 0.06 | 92 | 1020.9 |
| 20260902204317 | 70 | 80 | 1.0 | 1.0 | 0.00 | 0.88 | 0.06 | 92 | 1021.2 |
| 20260902204229 | 70 | 79 | 2.0 | 3.0 | 0.00 | 0.88 | 0.06 | 92 | 1021.2 |
| 20260902204124 | 70 | 91 | 2.0 | 3.0 | 0.00 | 0.88 | 0.06 | 92 | 1021.1 |
| 20260902204020 | 69 | 0.0 | 0.0 | 0.00 | 0.88 | 0.06 | 91 | 1021.1 | |
| 20260902203916 | 69 | 84 | 1.0 | 1.0 | 0.00 | 0.88 | 0.06 | 91 | 1021.0 |
| 20260902203827 | 69 | 84 | 1.0 | 1.0 | 0.00 | 0.88 | 0.06 | 91 | 1021.1 |
| 20260902203723 | 69 | 83 | 0.0 | 1.0 | 0.00 | 0.88 | 0.06 | 91 | 1021.1 |
| 20260902203618 | 69 | 83 | 1.0 | 2.0 | 0.00 | 0.88 | 0.06 | 91 | 1020.9 |
| 20260902203530 | 69 | 85 | 1.0 | 1.0 | 0.00 | 0.88 | 0.06 | 91 | 1021.1 |
| 20260902203445 | 69 | 89 | 2.0 | 3.0 | 0.00 | 0.88 | 0.06 | 91 | 1021.1 |
| 20260902203321 | 69 | 80 | 3.0 | 4.0 | 0.00 | 0.88 | 0.06 | 91 | 1021.0 |
| 20260902203216 | 69 | 75 | 2.0 | 6.0 | 0.00 | 0.88 | 0.06 | 91 | 1021.2 |
| 20260902203128 | 69 | 83 | 3.0 | 6.0 | 0.00 | 0.88 | 0.06 | 92 | 1021.2 |
| 20260902203024 | 69 | 78 | 1.0 | 1.0 | 0.00 | 0.88 | 0.06 | 92 | 1021.1 |
| 20260902202919 | 69 | 77 | 2.0 | 2.0 | 0.00 | 0.88 | 0.06 | 91 | 1021.1 |
| 20260902202831 | 69 | 71 | 1.0 | 2.0 | 0.00 | 0.88 | 0.06 | 92 | 1021.0 |
| 20260902202726 | 69 | 78 | 2.0 | 3.0 | 0.00 | 0.88 | 0.06 | 91 | 1021.0 |
| 20260902202622 | 69 | 90 | 2.0 | 4.0 | 0.00 | 0.88 | 0.06 | 91 | 1021.1 |
| 20260902202517 | 69 | 100 | 2.0 | 2.0 | 0.00 | 0.88 | 0.06 | 92 | 1021.1 |
| 20260902202449 | 69 | 106 | 1.0 | 2.0 | 0.00 | 0.88 | 0.06 | 92 | 1021.0 |
| 20260902202325 | 69 | 97 | 2.0 | 4.0 | 0.00 | 0.88 | 0.06 | 91 | 1021.1 |
| 20260902202220 | 69 | 110 | 2.0 | 2.0 | 0.00 | 0.88 | 0.06 | 91 | 1021.1 |
| 20260902202136 | 69 | 108 | 0.0 | 1.0 | 0.00 | 0.88 | 0.06 | 91 | 1021.2 |
| 20260902202028 | 69 | 108 | 0.0 | 1.0 | 0.00 | 0.88 | 0.06 | 92 | 1021.3 |
| 20260902201923 | 69 | 108 | 1.0 | 1.0 | 0.00 | 0.88 | 0.06 | 92 | 1021.3 |
| 20260902201819 | 69 | 108 | 1.0 | 1.0 | 0.00 | 0.88 | 0.06 | 92 | 1021.4 |
| 20260902201730 | 69 | 107 | 2.0 | 2.0 | 0.00 | 0.88 | 0.06 | 91 | 1021.2 |
| 20260902201626 | 69 | 101 | 1.0 | 2.0 | 0.00 | 0.88 | 0.06 | 91 | 1021.1 |
| 20260902201522 | 69 | 100 | 1.0 | 2.0 | 0.00 | 0.88 | 0.06 | 92 | 1021.2 |
| 20260902201417 | 69 | 100 | 1.0 | 1.0 | 0.00 | 0.88 | 0.06 | 92 | 1021.2 |
| 20260902201349 | 69 | 100 | 1.0 | 1.0 | 0.00 | 0.88 | 0.06 | 92 | 1021.2 |
| 20260902201224 | 69 | 100 | 0.0 | 1.0 | 0.00 | 0.88 | 0.06 | 92 | 1021.2 |
| 20260902201120 | 69 | 99 | 1.0 | 1.0 | 0.00 | 0.88 | 0.06 | 92 | 1021.3 |
| 20260902201016 | 69 | 100 | 1.0 | 1.0 | 0.00 | 0.88 | 0.06 | 92 | 1021.2 |
| 20260902200927 | 69 | 101 | 1.0 | 2.0 | 0.00 | 0.88 | 0.06 | 92 | 1021.1 |
| 20260902200822 | 69 | 94 | 1.0 | 2.0 | 0.00 | 0.88 | 0.06 | 92 | 1021.1 |
| 20260902200718 | 69 | 82 | 1.0 | 1.0 | 0.00 | 0.88 | 0.06 | 92 | 1021.2 |
| 20260902200630 | 69 | 81 | 0.0 | 1.0 | 0.00 | 0.88 | 0.06 | 92 | 1021.1 |
| 20260902200525 | 69 | 81 | 1.0 | 1.0 | 0.00 | 0.88 | 0.06 | 92 | 1021.1 |
| 20260902200440 | 69 | 81 | 1.0 | 1.0 | 0.00 | 0.88 | 0.06 | 91 | 1021.3 |
| 20260902200316 | 69 | 82 | 1.0 | 1.0 | 0.01 | 0.88 | 0.06 | 91 | 1021.2 |
| 20260902200228 | 69 | 82 | 1.0 | 2.0 | 0.01 | 0.88 | 0.06 | 91 | 1021.3 |
| 20260902200124 | 69 | 81 | 0.0 | 2.0 | 0.01 | 0.88 | 0.06 | 91 | 1021.2 |
| 20260902200019 | 69 | 81 | 1.0 | 1.0 | 0.01 | 0.88 | 0.06 | 91 | 1021.1 |
| 20260902195931 | 69 | 81 | 1.0 | 1.0 | 0.01 | 0.88 | 0.06 | 91 | 1021.3 |
| 20260902195826 | 69 | 0.0 | 0.0 | 0.01 | 0.88 | 0.06 | 91 | 1021.4 | |
| 20260902195722 | 69 | 0.0 | 0.0 | 0.01 | 0.88 | 0.06 | 91 | 1021.6 | |
| 20260902195618 | 69 | 81 | 0.0 | 1.0 | 0.01 | 0.88 | 0.06 | 91 | 1021.4 |
| 20260902195529 | 69 | 81 | 1.0 | 1.0 | 0.01 | 0.88 | 0.06 | 91 | 1021.5 |
| 20260902195425 | 69 | 81 | 1.0 | 1.0 | 0.01 | 0.88 | 0.06 | 91 | 1021.5 |
| 20260902195320 | 69 | 80 | 1.0 | 2.0 | 0.01 | 0.88 | 0.06 | 91 | 1021.5 |
| 20260902195236 | 69 | 75 | 0.0 | 1.0 | 0.01 | 0.88 | 0.06 | 91 | 1021.5 |
| 20260902195148 | 69 | 75 | 1.0 | 2.0 | 0.01 | 0.88 | 0.06 | 92 | 1021.4 |
| 20260902195023 | 69 | 74 | 1.0 | 1.0 | 0.02 | 0.88 | 0.06 | 91 | 1021.5 |
| 20260902194919 | 69 | 74 | 1.0 | 1.0 | 0.02 | 0.88 | 0.06 | 92 | 1021.5 |
| 20260902194830 | 69 | 74 | 1.0 | 1.0 | 0.02 | 0.88 | 0.06 | 92 | 1021.4 |
| 20260902194821 | 69 | 74 | 0.0 | 1.0 | 0.02 | 0.88 | 0.06 | 92 | 1021.5 |
| 20260902194517 | 70 | 0.0 | 0.0 | 0.03 | 0.88 | 0.06 | 91 | 1021.4 | |
| 20260902194429 | 70 | 74 | 0.0 | 1.0 | 0.03 | 0.88 | 0.06 | 91 | 1021.3 |
| 20260902194324 | 70 | 74 | 0.0 | 1.0 | 0.03 | 0.88 | 0.06 | 91 | 1021.4 |
| 20260902194220 | 70 | 74 | 1.0 | 1.0 | 0.03 | 0.88 | 0.06 | 91 | 1021.5 |
| 20260902194131 | 70 | 74 | 1.0 | 1.0 | 0.04 | 0.88 | 0.06 | 90 | 1021.4 |
| 20260902194046 | 70 | 74 | 1.0 | 2.0 | 0.04 | 0.88 | 0.06 | 89 | 1021.6 |
| 20260902193922 | 70 | 73 | 1.0 | 2.0 | 0.04 | 0.88 | 0.06 | 89 | 1021.7 |
| 20260902193817 | 70 | 73 | 0.0 | 1.0 | 0.04 | 0.88 | 0.06 | 90 | 1021.5 |
| 20260902193729 | 70 | 73 | 0.0 | 1.0 | 0.04 | 0.88 | 0.06 | 90 | 1021.7 |
| 20260902193624 | 70 | 73 | 0.0 | 1.0 | 0.04 | 0.88 | 0.06 | 90 | 1021.5 |
| 20260902193520 | 70 | 0.0 | 0.0 | 0.04 | 0.88 | 0.06 | 90 | 1021.6 | |
| 20260902193416 | 70 | 0.0 | 0.0 | 0.04 | 0.88 | 0.06 | 90 | 1021.6 | |
| 20260902193327 | 70 | 0.0 | 0.0 | 0.04 | 0.88 | 0.06 | 90 | 1021.6 | |
| 20260902193223 | 70 | 0.0 | 0.0 | 0.04 | 0.88 | 0.06 | 90 | 1021.7 | |
| 20260902193118 | 70 | 0.0 | 0.0 | 0.04 | 0.88 | 0.06 | 90 | 1021.9 | |
| 20260902193030 | 70 | 0.0 | 0.0 | 0.04 | 0.88 | 0.06 | 90 | 1021.8 | |
| 20260902192946 | 70 | 0.0 | 0.0 | 0.04 | 0.88 | 0.06 | 90 | 1021.9 | |
| 20260902192821 | 70 | 73 | 0.0 | 1.0 | 0.04 | 0.88 | 0.06 | 89 | 1021.9 |
| 20260902192717 | 70 | 0.0 | 0.0 | 0.04 | 0.88 | 0.06 | 90 | 1021.8 | |
| 20260902192628 | 70 | 0.0 | 0.0 | 0.04 | 0.88 | 0.06 | 90 | 1021.6 | |
| 20260902192524 | 70 | 0.0 | 0.0 | 0.04 | 0.88 | 0.06 | 90 | 1021.7 | |
| 20260902192419 | 70 | 0.0 | 0.0 | 0.04 | 0.88 | 0.06 | 90 | 1021.7 | |
| 20260902192351 | 70 | 0.0 | 0.0 | 0.04 | 0.88 | 0.06 | 90 | 1021.8 | |
| 20260902192226 | 70 | 0.0 | 0.0 | 0.04 | 0.88 | 0.06 | 90 | 1021.6 | |
| 20260902192122 | 70 | 0.0 | 0.0 | 0.04 | 0.88 | 0.06 | 90 | 1021.6 | |
| 20260902192018 | 70 | 0.0 | 0.0 | 0.04 | 0.88 | 0.06 | 90 | 1021.7 | |
| 20260902191929 | 70 | 0.0 | 0.0 | 0.04 | 0.88 | 0.06 | 89 | 1021.6 | |
| 20260902191825 | 70 | 73 | 0.0 | 1.0 | 0.04 | 0.88 | 0.06 | 89 | 1021.6 |
| 20260902191721 | 70 | 73 | 0.0 | 1.0 | 0.04 | 0.88 | 0.06 | 90 | 1021.6 |
| 20260902191616 | 71 | 73 | 0.0 | 1.0 | 0.04 | 0.88 | 0.06 | 89 | 1021.7 |
| 20260902191528 | 71 | 73 | 0.0 | 1.0 | 0.04 | 0.88 | 0.06 | 89 | 1021.5 |
| 20260902191424 | 71 | 73 | 1.0 | 3.0 | 0.04 | 0.88 | 0.06 | 89 | 1021.6 |
| 20260902191319 | 71 | 83 | 1.0 | 1.0 | 0.04 | 0.88 | 0.06 | 89 | 1021.7 |
| 20260902191231 | 71 | 0.0 | 0.0 | 0.04 | 0.88 | 0.06 | 89 | 1021.7 | |
| 20260902191126 | 71 | 82 | 0.0 | 1.0 | 0.04 | 0.88 | 0.06 | 89 | 1021.6 |
| 20260902191022 | 71 | 82 | 0.0 | 1.0 | 0.04 | 0.88 | 0.06 | 89 | 1021.5 |
| 20260902190918 | 71 | 0.0 | 0.0 | 0.04 | 0.88 | 0.06 | 89 | 1021.5 | |
| 20260902190829 | 71 | 83 | 1.0 | 2.0 | 0.04 | 0.88 | 0.06 | 90 | 1021.6 |
| 20260902190725 | 71 | 83 | 0.0 | 1.0 | 0.04 | 0.88 | 0.06 | 90 | 1021.6 |
| 20260902190620 | 71 | 86 | 0.0 | 1.0 | 0.04 | 0.88 | 0.06 | 90 | 1021.7 |
| 20260902190516 | 71 | 87 | 0.0 | 1.0 | 0.04 | 0.88 | 0.05 | 90 | 1021.6 |
| 20260902190427 | 71 | 87 | 0.0 | 1.0 | 0.04 | 0.88 | 0.05 | 90 | 1021.7 |
| 20260902190323 | 70 | 0.0 | 0.0 | 0.03 | 0.87 | 0.05 | 90 | 1021.6 | |
| 20260902190239 | 70 | 0.0 | 0.0 | 0.03 | 0.87 | 0.05 | 90 | 1021.5 | |
| 20260902190130 | 70 | 86 | 1.0 | 2.0 | 0.03 | 0.87 | 0.05 | 89 | 1021.4 |
| 20260902190026 | 70 | 90 | 1.0 | 2.0 | 0.03 | 0.87 | 0.05 | 89 | 1021.2 |
| 20260902185921 | 70 | 127 | 1.0 | 2.0 | 0.03 | 0.87 | 0.05 | 90 | 1021.3 |
| 20260902185817 | 70 | 127 | 2.0 | 3.0 | 0.03 | 0.87 | 0.05 | 89 | 1021.3 |
| 20260902185729 | 70 | 115 | 1.0 | 3.0 | 0.03 | 0.87 | 0.05 | 89 | 1021.2 |
| 20260902185624 | 70 | 89 | 1.0 | 2.0 | 0.03 | 0.87 | 0.05 | 90 | 1021.2 |
| 20260902185520 | 70 | 88 | 2.0 | 2.0 | 0.03 | 0.87 | 0.05 | 89 | 1021.4 |
| 20260902185415 | 70 | 81 | 2.0 | 2.0 | 0.03 | 0.87 | 0.05 | 89 | 1021.4 |
| 20260902185327 | 70 | 62 | 2.0 | 3.0 | 0.03 | 0.87 | 0.04 | 89 | 1021.5 |
| 20260902185222 | 70 | 84 | 2.0 | 2.0 | 0.03 | 0.87 | 0.04 | 89 | 1021.6 |
| 20260902185118 | 70 | 100 | 1.0 | 2.0 | 0.03 | 0.87 | 0.04 | 89 | 1021.6 |
| 20260902185030 | 70 | 0.0 | 0.0 | 0.02 | 0.87 | 0.04 | 89 | 1021.7 | |
| 20260902184925 | 70 | 100 | 0.0 | 1.0 | 0.02 | 0.86 | 0.03 | 88 | 1021.7 |
| 20260902184841 | 70 | 100 | 0.0 | 1.0 | 0.02 | 0.86 | 0.03 | 88 | 1021.7 |
| 20260902184736 | 70 | 100 | 1.0 | 1.0 | 0.02 | 0.86 | 0.03 | 88 | 1021.5 |
| 20260902184628 | 70 | 100 | 1.0 | 1.0 | 0.02 | 0.86 | 0.03 | 89 | 1021.5 |
| 20260902184524 | 70 | 100 | 1.0 | 1.0 | 0.01 | 0.85 | 0.03 | 88 | 1021.7 |
| 20260902184420 | 70 | 100 | 0.0 | 1.0 | 0.01 | 0.85 | 0.02 | 88 | 1021.6 |
| 20260902184331 | 70 | 100 | 1.0 | 2.0 | 0.01 | 0.85 | 0.02 | 87 | 1021.6 |
| 20260902184226 | 70 | 100 | 0.0 | 1.0 | 0.01 | 0.85 | 0.02 | 88 | 1021.8 |
| 20260902184122 | 70 | 0.0 | 0.0 | 0.00 | 0.85 | 0.02 | 87 | 1021.7 | |
| 20260902184017 | 70 | 0.0 | 0.0 | 0.00 | 0.85 | 0.02 | 87 | 1021.7 | |
| 20260902183929 | 70 | 0.0 | 0.0 | 0.00 | 0.85 | 0.02 | 87 | 1021.7 | |
| 20260902183824 | 70 | 100 | 1.0 | 1.0 | 0.00 | 0.85 | 0.02 | 86 | 1021.6 |
| 20260902183720 | 70 | 100 | 1.0 | 1.0 | 0.00 | 0.85 | 0.02 | 85 | 1021.8 |
| 20260902183615 | 70 | 101 | 1.0 | 1.0 | 0.00 | 0.85 | 0.02 | 86 | 1021.8 |
| 20260902183607 | 70 | 100 | 1.0 | 2.0 | 0.00 | 0.84 | 0.02 | 86 | 1021.7 |
| 20260902183421 | 70 | 89 | 2.0 | 3.0 | 0.00 | 0.84 | 0.02 | 86 | 1021.7 |
| 20260902183357 | 70 | 118 | 1.0 | 2.0 | 0.00 | 0.84 | 0.02 | 85 | 1021.7 |
| 20260902183229 | 70 | 120 | 1.0 | 1.0 | 0.00 | 0.84 | 0.02 | 86 | 1021.8 |
| 20260902183124 | 70 | 119 | 0.0 | 1.0 | 0.00 | 0.84 | 0.02 | 86 | 1021.8 |
| 20260902183019 | 70 | 0.0 | 0.0 | 0.00 | 0.84 | 0.02 | 86 | 1021.8 | |
| 20260902182931 | 70 | 0.0 | 0.0 | 0.00 | 0.84 | 0.02 | 86 | 1021.8 | |
| 20260902182826 | 70 | 0.0 | 0.0 | 0.00 | 0.84 | 0.02 | 85 | 1021.8 | |
| 20260902182722 | 70 | 119 | 1.0 | 1.0 | 0.00 | 0.84 | 0.02 | 84 | 1021.8 |
| 20260902182617 | 70 | 118 | 1.0 | 2.0 | 0.00 | 0.84 | 0.02 | 85 | 1021.7 |
| 20260902182529 | 70 | 110 | 2.0 | 2.0 | 0.00 | 0.84 | 0.02 | 85 | 1021.9 |
| 20260902182424 | 70 | 112 | 1.0 | 2.0 | 0.00 | 0.84 | 0.02 | 86 | 1021.7 |
| 20260902182319 | 70 | 0.0 | 0.0 | 0.00 | 0.84 | 0.02 | 85 | 1021.7 | |
| 20260902182231 | 70 | 112 | 1.0 | 2.0 | 0.00 | 0.84 | 0.02 | 85 | 1021.7 |
| 20260902182126 | 70 | 110 | 1.0 | 2.0 | 0.00 | 0.84 | 0.02 | 85 | 1021.6 |
| 20260902182022 | 70 | 100 | 2.0 | 3.0 | 0.00 | 0.84 | 0.02 | 85 | 1021.6 |
| 20260902181917 | 70 | 116 | 2.0 | 4.0 | 0.00 | 0.84 | 0.02 | 84 | 1021.7 |
| 20260902181829 | 70 | 105 | 3.0 | 6.0 | 0.00 | 0.84 | 0.02 | 85 | 1021.5 |
| 20260902181725 | 70 | 142 | 2.0 | 3.0 | 0.00 | 0.84 | 0.02 | 85 | 1021.6 |
| 20260902181620 | 70 | 144 | 0.0 | 1.0 | 0.00 | 0.84 | 0.02 | 85 | 1021.6 |
| 20260902181515 | 70 | 93 | 2.0 | 3.0 | 0.00 | 0.84 | 0.02 | 85 | 1021.6 |
| 20260902181447 | 70 | 95 | 4.0 | 7.0 | 0.00 | 0.84 | 0.02 | 85 | 1021.5 |
| 20260902181321 | 70 | 85 | 2.0 | 3.0 | 0.00 | 0.84 | 0.02 | 84 | 1021.8 |
| 20260902181216 | 70 | 85 | 2.0 | 4.0 | 0.00 | 0.84 | 0.02 | 84 | 1021.6 |
| 20260902181148 | 70 | 82 | 3.0 | 4.0 | 0.00 | 0.84 | 0.02 | 84 | 1021.6 |
| 20260902181024 | 70 | 102 | 4.0 | 6.0 | 0.00 | 0.84 | 0.02 | 85 | 1021.6 |
| 20260902180939 | 70 | 69 | 3.0 | 4.0 | 0.00 | 0.84 | 0.02 | 85 | 1021.6 |
| 20260902180851 | 70 | 70 | 3.0 | 4.0 | 0.00 | 0.84 | 0.02 | 84 | 1021.8 |
| 20260902180726 | 70 | 83 | 0.0 | 2.0 | 0.00 | 0.84 | 0.02 | 85 | 1021.6 |
| 20260902180622 | 70 | 95 | 0.0 | 1.0 | 0.00 | 0.84 | 0.02 | 85 | 1021.6 |
| 20260902180517 | 70 | 95 | 1.0 | 2.0 | 0.00 | 0.84 | 0.02 | 85 | 1021.3 |
| 20260902180428 | 70 | 87 | 2.0 | 3.0 | 0.00 | 0.84 | 0.02 | 84 | 1021.5 |
| 20260902180323 | 70 | 119 | 2.0 | 6.0 | 0.00 | 0.84 | 0.02 | 85 | 1021.8 |
| 20260902180219 | 70 | 82 | 2.0 | 3.0 | 0.00 | 0.84 | 0.02 | 85 | 1022.0 |
| 20260902180130 | 70 | 81 | 1.0 | 3.0 | 0.00 | 0.84 | 0.02 | 85 | 1021.8 |
| 20260902180025 | 70 | 78 | 2.0 | 2.0 | 0.00 | 0.84 | 0.02 | 85 | 1021.9 |
| 20260902175921 | 70 | 75 | 1.0 | 2.0 | 0.00 | 0.84 | 0.02 | 85 | 1022.0 |
| 20260902175817 | 70 | 73 | 2.0 | 2.0 | 0.00 | 0.84 | 0.02 | 85 | 1022.1 |
| 20260902175728 | 70 | 72 | 1.0 | 2.0 | 0.00 | 0.84 | 0.02 | 85 | 1021.9 |
| 20260902175624 | 70 | 72 | 0.0 | 1.0 | 0.00 | 0.84 | 0.02 | 84 | 1022.1 |
| 20260902175519 | 70 | 71 | 1.0 | 1.0 | 0.00 | 0.84 | 0.02 | 84 | 1021.9 |
| 20260902175430 | 70 | 71 | 1.0 | 1.0 | 0.00 | 0.84 | 0.02 | 84 | 1022.1 |
| 20260902175325 | 70 | 71 | 2.0 | 3.0 | 0.00 | 0.84 | 0.02 | 84 | 1022.1 |
| 20260902175220 | 70 | 95 | 1.0 | 1.0 | 0.00 | 0.84 | 0.02 | 84 | 1022.1 |
| 20260902175131 | 70 | 96 | 1.0 | 2.0 | 0.00 | 0.84 | 0.02 | 83 | 1022.0 |
| 20260902175026 | 70 | 86 | 2.0 | 3.0 | 0.00 | 0.84 | 0.02 | 84 | 1021.9 |
| 20260902174921 | 70 | 85 | 2.0 | 3.0 | 0.00 | 0.84 | 0.02 | 83 | 1022.0 |
| 20260902174836 | 70 | 119 | 2.0 | 3.0 | 0.00 | 0.84 | 0.02 | 84 | 1022.1 |
| 20260902174728 | 70 | 113 | 2.0 | 3.0 | 0.00 | 0.84 | 0.02 | 85 | 1021.9 |
| 20260902174624 | 70 | 114 | 2.0 | 2.0 | 0.00 | 0.84 | 0.02 | 85 | 1021.9 |
| 20260902174519 | 70 | 113 | 1.0 | 2.0 | 0.00 | 0.84 | 0.02 | 85 | 1022.1 |
| 20260902174430 | 70 | 110 | 2.0 | 2.0 | 0.00 | 0.84 | 0.02 | 85 | 1021.9 |
| 20260902174326 | 70 | 106 | 0.0 | 1.0 | 0.00 | 0.84 | 0.02 | 85 | 1022.1 |
| 20260902174221 | 70 | 106 | 1.0 | 2.0 | 0.00 | 0.84 | 0.02 | 84 | 1022.0 |
| 20260902174116 | 70 | 107 | 1.0 | 1.0 | 0.00 | 0.84 | 0.02 | 84 | 1022.1 |
| 20260902174047 | 70 | 91 | 2.0 | 3.0 | 0.00 | 0.84 | 0.02 | 84 | 1021.9 |
| 20260902173922 | 70 | 106 | 1.0 | 1.0 | 0.00 | 0.84 | 0.02 | 83 | 1022.1 |
| 20260902173818 | 70 | 105 | 1.0 | 2.0 | 0.00 | 0.84 | 0.02 | 82 | 1022.1 |
| 20260902173730 | 70 | 125 | 1.0 | 2.0 | 0.00 | 0.84 | 0.02 | 85 | 1022.1 |
| 20260902173625 | 70 | 139 | 2.0 | 3.0 | 0.00 | 0.84 | 0.02 | 84 | 1022.0 |
| 20260902173521 | 70 | 96 | 1.0 | 1.0 | 0.00 | 0.84 | 0.02 | 84 | 1022.0 |
| 20260902173416 | 70 | 97 | 0.0 | 1.0 | 0.00 | 0.84 | 0.02 | 83 | 1021.8 |
| 20260902173328 | 70 | 97 | 1.0 | 2.0 | 0.00 | 0.84 | 0.02 | 84 | 1021.8 |
| 20260902173243 | 70 | 85 | 1.0 | 3.0 | 0.00 | 0.84 | 0.02 | 83 | 1021.8 |
| 20260902173139 | 70 | 107 | 2.0 | 3.0 | 0.00 | 0.84 | 0.02 | 84 | 1021.8 |
| 20260902173051 | 70 | 92 | 2.0 | 4.0 | 0.00 | 0.84 | 0.02 | 85 | 1021.9 |
| 20260902172926 | 70 | 65 | 3.0 | 6.0 | 0.00 | 0.84 | 0.02 | 85 | 1021.9 |
| 20260902172822 | 70 | 141 | 2.0 | 2.0 | 0.00 | 0.84 | 0.02 | 84 | 1022.2 |
| 20260902172717 | 70 | 94 | 3.0 | 4.0 | 0.00 | 0.84 | 0.02 | 83 | 1022.0 |
| 20260902172628 | 70 | 83 | 2.0 | 4.0 | 0.00 | 0.84 | 0.02 | 83 | 1022.0 |
| 20260902172524 | 70 | 111 | 1.0 | 3.0 | 0.00 | 0.84 | 0.02 | 83 | 1022.2 |
| 20260902172419 | 70 | 111 | 1.0 | 2.0 | 0.00 | 0.84 | 0.02 | 83 | 1022.3 |
| 20260902172330 | 70 | 112 | 1.0 | 2.0 | 0.00 | 0.84 | 0.02 | 84 | 1022.1 |
| 20260902172226 | 70 | 109 | 1.0 | 3.0 | 0.00 | 0.84 | 0.02 | 85 | 1022.1 |
| 20260902172121 | 70 | 107 | 1.0 | 1.0 | 0.00 | 0.84 | 0.02 | 85 | 1022.2 |
| 20260902172017 | 70 | 107 | 1.0 | 1.0 | 0.00 | 0.84 | 0.02 | 84 | 1022.3 |
| 20260902171929 | 70 | 107 | 1.0 | 1.0 | 0.00 | 0.84 | 0.02 | 84 | 1022.1 |
| 20260902171824 | 70 | 107 | 1.0 | 2.0 | 0.00 | 0.84 | 0.02 | 83 | 1022.1 |
| 20260902171720 | 70 | 107 | 1.0 | 1.0 | 0.00 | 0.84 | 0.02 | 84 | 1022.3 |
| 20260902171650 | 70 | 107 | 1.0 | 2.0 | 0.00 | 0.84 | 0.02 | 84 | 1022.0 |
| 20260902171525 | 70 | 103 | 1.0 | 2.0 | 0.00 | 0.84 | 0.02 | 85 | 1022.3 |
| 20260902171421 | 70 | 102 | 1.0 | 2.0 | 0.00 | 0.84 | 0.02 | 84 | 1022.1 |
| 20260902171337 | 70 | 102 | 1.0 | 2.0 | 0.00 | 0.84 | 0.02 | 85 | 1022.3 |
| 20260902171229 | 70 | 102 | 1.0 | 1.0 | 0.00 | 0.84 | 0.02 | 85 | 1022.2 |
| 20260902171123 | 70 | 102 | 1.0 | 2.0 | 0.00 | 0.84 | 0.02 | 85 | 1022.2 |
| 20260902171019 | 70 | 102 | 1.0 | 2.0 | 0.00 | 0.84 | 0.02 | 85 | 1022.2 |
| 20260902170930 | 70 | 0.0 | 0.0 | 0.00 | 0.84 | 0.02 | 84 | 1022.2 | |
| 20260902170826 | 70 | 0.0 | 0.0 | 0.00 | 0.84 | 0.02 | 83 | 1022.2 | |
| 20260902170721 | 70 | 0.0 | 0.0 | 0.00 | 0.84 | 0.02 | 83 | 1022.2 | |
| 20260902170636 | 70 | 101 | 1.0 | 2.0 | 0.00 | 0.84 | 0.02 | 82 | 1022.3 |
| 20260902170527 | 70 | 101 | 2.0 | 2.0 | 0.00 | 0.84 | 0.02 | 81 | 1022.3 |
| 20260902170423 | 70 | 84 | 2.0 | 6.0 | 0.00 | 0.84 | 0.02 | 81 | 1022.3 |
| 20260902170318 | 70 | 134 | 2.0 | 3.0 | 0.00 | 0.84 | 0.02 | 82 | 1022.5 |
| 20260902170250 | 70 | 105 | 1.0 | 2.0 | 0.00 | 0.84 | 0.02 | 83 | 1022.2 |
| 20260902170125 | 70 | 95 | 3.0 | 4.0 | 0.00 | 0.84 | 0.02 | 82 | 1022.2 |
| 20260902170021 | 70 | 72 | 2.0 | 3.0 | 0.00 | 0.84 | 0.02 | 83 | 1022.2 |
| 20260902165936 | 70 | 80 | 1.0 | 3.0 | 0.00 | 0.84 | 0.02 | 83 | 1022.2 |
| 20260902165828 | 70 | 80 | 0.0 | 2.0 | 0.00 | 0.84 | 0.02 | 82 | 1022.4 |
| 20260902165724 | 70 | 82 | 1.0 | 2.0 | 0.00 | 0.84 | 0.02 | 83 | 1022.2 |
| 20260902165619 | 69 | 305 | 1.0 | 2.0 | 0.00 | 0.84 | 0.02 | 83 | 1022.2 |
| 20260902165530 | 69 | 127 | 1.0 | 2.0 | 0.00 | 0.84 | 0.02 | 84 | 1022.1 |
| 20260902165425 | 70 | 122 | 2.0 | 2.0 | 0.00 | 0.84 | 0.02 | 84 | 1022.2 |
| 20260902165321 | 69 | 121 | 2.0 | 4.0 | 0.00 | 0.84 | 0.02 | 83 | 1022.1 |
| 20260902165236 | 69 | 58 | 2.0 | 6.0 | 0.00 | 0.84 | 0.02 | 82 | 1022.3 |
| 20260902165128 | 70 | 113 | 3.0 | 6.0 | 0.00 | 0.84 | 0.02 | 83 | 1022.2 |
| 20260902165023 | 70 | 117 | 3.0 | 3.0 | 0.00 | 0.84 | 0.02 | 82 | 1022.3 |
| 20260902164919 | 69 | 92 | 2.0 | 2.0 | 0.00 | 0.84 | 0.02 | 82 | 1022.4 |
| 20260902164830 | 69 | 83 | 3.0 | 6.0 | 0.00 | 0.84 | 0.02 | 82 | 1022.2 |
| 20260902164745 | 69 | 94 | 1.0 | 3.0 | 0.00 | 0.84 | 0.02 | 82 | 1022.1 |
| 20260902164641 | 69 | 108 | 2.0 | 4.0 | 0.00 | 0.84 | 0.02 | 83 | 1022.1 |
| 20260902164516 | 69 | 99 | 2.0 | 3.0 | 0.00 | 0.84 | 0.02 | 83 | 1022.2 |
| 20260902164427 | 69 | 101 | 3.0 | 6.0 | 0.00 | 0.84 | 0.02 | 83 | 1022.2 |
| 20260902164323 | 69 | 85 | 1.0 | 2.0 | 0.00 | 0.84 | 0.02 | 83 | 1022.2 |
| 20260902164238 | 69 | 82 | 1.0 | 3.0 | 0.00 | 0.84 | 0.02 | 84 | 1022.2 |
| 20260902164130 | 69 | 112 | 1.0 | 1.0 | 0.00 | 0.84 | 0.02 | 84 | 1022.3 |
| 20260902164025 | 69 | 105 | 2.0 | 4.0 | 0.00 | 0.84 | 0.02 | 84 | 1022.2 |
| 20260902163941 | 69 | 74 | 1.0 | 3.0 | 0.00 | 0.84 | 0.02 | 84 | 1022.4 |
| 20260902163816 | 69 | 93 | 2.0 | 3.0 | 0.00 | 0.84 | 0.02 | 84 | 1022.5 |
| 20260902163726 | 69 | 78 | 1.0 | 1.0 | 0.00 | 0.84 | 0.02 | 84 | 1022.5 |
| 20260902163622 | 69 | 78 | 0.0 | 1.0 | 0.00 | 0.84 | 0.02 | 85 | 1022.4 |
| 20260902163517 | 69 | 78 | 2.0 | 3.0 | 0.00 | 0.84 | 0.02 | 85 | 1022.6 |
| 20260902163429 | 69 | 77 | 3.0 | 4.0 | 0.00 | 0.84 | 0.02 | 86 | 1022.4 |
| 20260902163325 | 69 | 98 | 1.0 | 3.0 | 0.00 | 0.84 | 0.02 | 86 | 1022.6 |
| 20260902163220 | 69 | 105 | 1.0 | 2.0 | 0.00 | 0.84 | 0.02 | 85 | 1022.6 |
| 20260902163115 | 69 | 96 | 1.0 | 2.0 | 0.00 | 0.84 | 0.02 | 84 | 1022.6 |
| 20260902163027 | 69 | 85 | 2.0 | 3.0 | 0.00 | 0.84 | 0.02 | 84 | 1022.4 |
| 20260902162923 | 69 | 83 | 3.0 | 4.0 | 0.00 | 0.84 | 0.02 | 85 | 1022.6 |
| 20260902162818 | 69 | 94 | 1.0 | 2.0 | 0.00 | 0.84 | 0.02 | 84 | 1022.6 |
| 20260902162730 | 69 | 98 | 2.0 | 3.0 | 0.00 | 0.84 | 0.02 | 85 | 1022.6 |
| 20260902162625 | 69 | 85 | 2.0 | 3.0 | 0.00 | 0.84 | 0.02 | 88 | 1022.6 |
| 20260902162521 | 69 | 101 | 1.0 | 2.0 | 0.00 | 0.84 | 0.02 | 89 | 1022.5 |
| 20260902162417 | 69 | 101 | 1.0 | 1.0 | 0.00 | 0.84 | 0.02 | 89 | 1022.4 |
| 20260902162328 | 69 | 0.0 | 0.0 | 0.00 | 0.84 | 0.02 | 89 | 1022.5 | |
| 20260902162224 | 69 | 101 | 0.0 | 1.0 | 0.00 | 0.84 | 0.02 | 89 | 1022.6 |
| 20260902162120 | 69 | 0.0 | 0.0 | 0.00 | 0.84 | 0.02 | 88 | 1022.6 | |
| 20260902162031 | 69 | 0.0 | 0.0 | 0.00 | 0.84 | 0.02 | 87 | 1022.6 | |
| 20260902161926 | 69 | 0.0 | 0.0 | 0.00 | 0.84 | 0.02 | 86 | 1022.6 | |
| 20260902161821 | 69 | 101 | 0.0 | 1.0 | 0.00 | 0.84 | 0.02 | 87 | 1022.4 |
| 20260902161717 | 69 | 100 | 1.0 | 2.0 | 0.00 | 0.84 | 0.02 | 87 | 1022.5 |
| 20260902161628 | 69 | 92 | 1.0 | 2.0 | 0.00 | 0.84 | 0.02 | 88 | 1022.7 |
| 20260902161524 | 69 | 91 | 0.0 | 2.0 | 0.00 | 0.84 | 0.02 | 88 | 1022.4 |
| 20260902161420 | 69 | 92 | 1.0 | 2.0 | 0.00 | 0.84 | 0.02 | 87 | 1022.4 |
| 20260902161351 | 69 | 96 | 1.0 | 2.0 | 0.00 | 0.84 | 0.02 | 87 | 1022.6 |
| 20260902161226 | 69 | 105 | 1.0 | 2.0 | 0.00 | 0.84 | 0.02 | 87 | 1022.6 |
| 20260902161122 | 69 | 108 | 2.0 | 2.0 | 0.00 | 0.84 | 0.02 | 86 | 1022.4 |
| 20260902161017 | 69 | 113 | 1.0 | 3.0 | 0.00 | 0.84 | 0.02 | 86 | 1022.5 |
| 20260902160928 | 69 | 116 | 2.0 | 4.0 | 0.00 | 0.84 | 0.02 | 86 | 1022.4 |
| 20260902160823 | 69 | 77 | 3.0 | 4.0 | 0.00 | 0.84 | 0.02 | 87 | 1022.4 |
| 20260902160719 | 69 | 67 | 2.0 | 3.0 | 0.00 | 0.84 | 0.02 | 87 | 1022.4 |
| 20260902160630 | 69 | 74 | 0.0 | 1.0 | 0.00 | 0.84 | 0.02 | 86 | 1022.6 |
| 20260902160526 | 69 | 73 | 1.0 | 2.0 | 0.00 | 0.84 | 0.02 | 84 | 1022.4 |
| 20260902160421 | 69 | 106 | 2.0 | 2.0 | 0.00 | 0.84 | 0.02 | 85 | 1022.4 |
| 20260902160336 | 69 | 101 | 2.0 | 3.0 | 0.00 | 0.84 | 0.02 | 85 | 1022.5 |
| 20260902160247 | 69 | 119 | 1.0 | 2.0 | 0.00 | 0.84 | 0.02 | 87 | 1022.4 |
| 20260902160122 | 69 | 133 | 2.0 | 2.0 | 0.00 | 0.85 | 0.02 | 86 | 1022.3 |
| 20260902160018 | 69 | 108 | 3.0 | 4.0 | 0.00 | 0.85 | 0.02 | 87 | 1022.4 |
| 20260902155929 | 69 | 90 | 2.0 | 4.0 | 0.00 | 0.85 | 0.02 | 87 | 1022.3 |
| 20260902155845 | 69 | 100 | 1.0 | 2.0 | 0.00 | 0.85 | 0.02 | 88 | 1022.3 |
| 20260902155720 | 69 | 88 | 1.0 | 2.0 | 0.00 | 0.85 | 0.02 | 87 | 1022.4 |
| 20260902155615 | 69 | 86 | 1.0 | 1.0 | 0.00 | 0.85 | 0.02 | 87 | 1022.4 |
| 20260902155527 | 69 | 89 | 2.0 | 3.0 | 0.00 | 0.85 | 0.02 | 87 | 1022.4 |
| 20260902155422 | 69 | 90 | 4.0 | 7.0 | 0.00 | 0.85 | 0.02 | 88 | 1022.4 |
| 20260902155317 | 69 | 105 | 2.0 | 3.0 | 0.00 | 0.85 | 0.02 | 88 | 1022.5 |
| 20260902155228 | 69 | 126 | 1.0 | 1.0 | 0.00 | 0.85 | 0.02 | 88 | 1022.3 |
| 20260902155123 | 69 | 126 | 1.0 | 2.0 | 0.00 | 0.86 | 0.02 | 86 | 1022.2 |
| 20260902155019 | 69 | 125 | 1.0 | 1.0 | 0.00 | 0.86 | 0.02 | 85 | 1022.5 |
| 20260902154931 | 69 | 111 | 2.0 | 3.0 | 0.00 | 0.86 | 0.02 | 85 | 1022.5 |
| 20260902154826 | 69 | 103 | 2.0 | 3.0 | 0.00 | 0.86 | 0.02 | 87 | 1022.5 |
| 20260902154721 | 69 | 92 | 2.0 | 3.0 | 0.00 | 0.86 | 0.02 | 89 | 1022.5 |
| 20260902154637 | 69 | 83 | 0.0 | 1.0 | 0.00 | 0.86 | 0.02 | 90 | 1022.4 |
| 20260902154528 | 69 | 0.0 | 0.0 | 0.00 | 0.86 | 0.02 | 90 | 1022.2 | |
| 20260902154424 | 69 | 0.0 | 0.0 | 0.00 | 0.86 | 0.02 | 90 | 1022.3 | |
| 20260902154320 | 69 | 0.0 | 0.0 | 0.00 | 0.86 | 0.02 | 90 | 1022.3 | |
| 20260902154231 | 69 | 0.0 | 0.0 | 0.00 | 0.86 | 0.02 | 90 | 1022.4 | |
| 20260902154126 | 69 | 0.0 | 0.0 | 0.00 | 0.86 | 0.02 | 89 | 1022.5 | |
| 20260902154022 | 69 | 0.0 | 0.0 | 0.00 | 0.86 | 0.02 | 89 | 1022.3 | |
| 20260902153917 | 69 | 83 | 0.0 | 1.0 | 0.00 | 0.86 | 0.02 | 88 | 1022.5 |
| 20260902153829 | 69 | 83 | 1.0 | 1.0 | 0.00 | 0.87 | 0.02 | 88 | 1022.3 |
| 20260902153724 | 69 | 83 | 1.0 | 2.0 | 0.00 | 0.87 | 0.02 | 87 | 1022.3 |
| 20260902153639 | 69 | 83 | 0.0 | 1.0 | 0.00 | 0.87 | 0.02 | 87 | 1022.6 |
| 20260902153531 | 69 | 90 | 2.0 | 3.0 | 0.00 | 0.87 | 0.02 | 88 | 1022.5 |
| 20260902153426 | 69 | 98 | 0.0 | 1.0 | 0.00 | 0.87 | 0.02 | 89 | 1022.4 |
| 20260902153322 | 69 | 0.0 | 0.0 | 0.00 | 0.87 | 0.02 | 89 | 1022.6 | |
| 20260902153217 | 69 | 0.0 | 0.0 | 0.00 | 0.87 | 0.02 | 89 | 1022.5 | |
| 20260902153128 | 69 | 0.0 | 0.0 | 0.00 | 0.87 | 0.02 | 88 | 1022.5 | |
| 20260902153024 | 69 | 99 | 0.0 | 1.0 | 0.00 | 0.87 | 0.02 | 88 | 1022.3 |
| 20260902152918 | 69 | 99 | 1.0 | 2.0 | 0.00 | 0.87 | 0.02 | 89 | 1022.6 |
| 20260902152850 | 69 | 93 | 1.0 | 1.0 | 0.00 | 0.87 | 0.02 | 89 | 1022.6 |
| 20260902152725 | 69 | 93 | 1.0 | 2.0 | 0.00 | 0.87 | 0.02 | 89 | 1022.5 |
| 20260902152621 | 69 | 102 | 1.0 | 2.0 | 0.00 | 0.87 | 0.02 | 88 | 1022.5 |
| 20260902152517 | 69 | 102 | 2.0 | 3.0 | 0.00 | 0.87 | 0.02 | 88 | 1022.5 |
| 20260902152428 | 69 | 102 | 2.0 | 3.0 | 0.00 | 0.87 | 0.02 | 89 | 1022.5 |
| 20260902152323 | 69 | 93 | 2.0 | 3.0 | 0.00 | 0.87 | 0.02 | 89 | 1022.5 |
| 20260902152218 | 69 | 93 | 0.0 | 1.0 | 0.00 | 0.87 | 0.02 | 90 | 1022.5 |
| 20260902152130 | 69 | 0.0 | 0.0 | 0.00 | 0.87 | 0.02 | 90 | 1022.4 | |
| 20260902152025 | 69 | 93 | 0.0 | 1.0 | 0.00 | 0.87 | 0.02 | 90 | 1022.4 |
| 20260902151940 | 69 | 92 | 1.0 | 2.0 | 0.00 | 0.87 | 0.02 | 90 | 1022.5 |
| 20260902151816 | 69 | 91 | 0.0 | 1.0 | 0.00 | 0.87 | 0.02 | 89 | 1022.5 |
| 20260902151727 | 69 | 0.0 | 0.0 | 0.00 | 0.87 | 0.02 | 89 | 1022.4 | |
| 20260902151623 | 69 | 0.0 | 0.0 | 0.00 | 0.87 | 0.02 | 90 | 1022.4 | |
| 20260902151518 | 69 | 0.0 | 0.0 | 0.00 | 0.87 | 0.02 | 89 | 1022.7 | |
| 20260902151429 | 69 | 0.0 | 0.0 | 0.00 | 0.87 | 0.02 | 90 | 1022.5 | |
| 20260902151325 | 69 | 0.0 | 0.0 | 0.00 | 0.87 | 0.02 | 89 | 1022.6 | |
| 20260902151220 | 69 | 0.0 | 0.0 | 0.00 | 0.87 | 0.02 | 88 | 1022.6 | |
| 20260902151115 | 69 | 91 | 0.0 | 1.0 | 0.00 | 0.87 | 0.02 | 88 | 1022.7 |
| 20260902151027 | 69 | 91 | 1.0 | 2.0 | 0.00 | 0.87 | 0.02 | 89 | 1022.6 |
| 20260902150923 | 69 | 98 | 1.0 | 1.0 | 0.00 | 0.87 | 0.02 | 88 | 1022.6 |
| 20260902150818 | 69 | 99 | 0.0 | 1.0 | 0.00 | 0.87 | 0.02 | 89 | 1022.8 |
| 20260902150729 | 69 | 99 | 1.0 | 3.0 | 0.00 | 0.87 | 0.02 | 89 | 1022.5 |
| 20260902150625 | 69 | 71 | 0.0 | 1.0 | 0.00 | 0.87 | 0.02 | 90 | 1022.4 |
| 20260902150520 | 69 | 0.0 | 0.0 | 0.00 | 0.87 | 0.02 | 90 | 1022.5 | |
| 20260902150431 | 69 | 0.0 | 0.0 | 0.00 | 0.87 | 0.02 | 90 | 1022.7 | |
| 20260902150326 | 69 | 71 | 0.0 | 1.0 | 0.00 | 0.87 | 0.02 | 90 | 1022.5 |
| 20260902150222 | 69 | 0.0 | 0.0 | 0.00 | 0.87 | 0.02 | 90 | 1022.5 | |
| 20260902150117 | 69 | 0.0 | 0.0 | 0.00 | 0.87 | 0.02 | 89 | 1022.5 | |
| 20260902150028 | 69 | 71 | 1.0 | 1.0 | 0.00 | 0.87 | 0.02 | 88 | 1022.5 |
| 20260902145924 | 69 | 79 | 2.0 | 4.0 | 0.00 | 0.87 | 0.02 | 87 | 1022.3 |
| 20260902145819 | 69 | 119 | 1.0 | 2.0 | 0.00 | 0.87 | 0.02 | 87 | 1022.2 |
| 20260902145715 | 69 | 97 | 2.0 | 3.0 | 0.00 | 0.87 | 0.02 | 89 | 1022.4 |
| 20260902145626 | 69 | 148 | 2.0 | 2.0 | 0.00 | 0.87 | 0.02 | 89 | 1022.3 |
| 20260902145521 | 69 | 126 | 3.0 | 3.0 | 0.00 | 0.87 | 0.02 | 88 | 1022.2 |
| 20260902145417 | 69 | 94 | 3.0 | 6.0 | 0.00 | 0.87 | 0.02 | 87 | 1022.3 |
| 20260902145328 | 69 | 99 | 2.0 | 4.0 | 0.00 | 0.87 | 0.02 | 89 | 1022.1 |
| 20260902145224 | 69 | 96 | 3.0 | 6.0 | 0.00 | 0.87 | 0.02 | 89 | 1022.2 |
| 20260902145211 | 69 | 60 | 3.0 | 4.0 | 0.00 | 0.87 | 0.02 | 90 | 1022.2 |
| 20260902144926 | 69 | 75 | 2.0 | 3.0 | 0.00 | 0.87 | 0.02 | 89 | 1022.2 |
| 20260902144822 | 69 | 100 | 3.0 | 7.0 | 0.00 | 0.87 | 0.02 | 89 | 1022.2 |
| 20260902144717 | 69 | 92 | 2.0 | 6.0 | 0.00 | 0.87 | 0.02 | 90 | 1022.2 |
| 20260902144629 | 69 | 104 | 2.0 | 3.0 | 0.00 | 0.87 | 0.02 | 91 | 1022.1 |
| 20260902144544 | 69 | 89 | 1.0 | 3.0 | 0.00 | 0.87 | 0.02 | 91 | 1022.1 |
| 20260902144420 | 69 | 112 | 2.0 | 3.0 | 0.00 | 0.87 | 0.02 | 91 | 1022.2 |
| 20260902144315 | 69 | 117 | 1.0 | 1.0 | 0.00 | 0.87 | 0.02 | 92 | 1022.2 |
| 20260902144227 | 69 | 116 | 1.0 | 2.0 | 0.00 | 0.87 | 0.02 | 92 | 1022.3 |
| 20260902144122 | 69 | 117 | 1.0 | 3.0 | 0.00 | 0.87 | 0.02 | 92 | 1022.3 |
| 20260902144037 | 68 | 98 | 1.0 | 2.0 | 0.00 | 0.87 | 0.02 | 92 | 1022.3 |
| 20260902143928 | 68 | 85 | 0.0 | 1.0 | 0.00 | 0.87 | 0.02 | 92 | 1022.4 |
| 20260902143826 | 68 | 86 | 1.0 | 2.0 | 0.00 | 0.87 | 0.02 | 94 | 1022.5 |
| 20260902143810 | 68 | 107 | 1.0 | 2.0 | 0.00 | 0.87 | 0.02 | 94 | 1022.4 |
| 20260902143525 | 68 | 108 | 1.0 | 1.0 | 0.00 | 0.87 | 0.02 | 94 | 1022.3 |
| 20260902143421 | 68 | 0.0 | 0.0 | 0.00 | 0.87 | 0.02 | 93 | 1022.3 | |
| 20260902143316 | 68 | 0.0 | 0.0 | 0.00 | 0.87 | 0.02 | 93 | 1022.4 | |
| 20260902143228 | 68 | 107 | 0.0 | 1.0 | 0.00 | 0.87 | 0.02 | 92 | 1022.4 |
| 20260902143124 | 68 | 110 | 2.0 | 3.0 | 0.00 | 0.87 | 0.02 | 92 | 1022.3 |
| 20260902143020 | 68 | 112 | 1.0 | 3.0 | 0.00 | 0.87 | 0.02 | 92 | 1022.6 |
| 20260902142915 | 68 | 0.0 | 0.0 | 0.00 | 0.87 | 0.02 | 93 | 1022.4 | |
| 20260902142826 | 68 | 66 | 0.0 | 1.0 | 0.00 | 0.87 | 0.02 | 93 | 1022.4 |
| 20260902142722 | 68 | 78 | 1.0 | 2.0 | 0.00 | 0.87 | 0.02 | 93 | 1022.3 |
| 20260902142618 | 68 | 104 | 2.0 | 2.0 | 0.00 | 0.87 | 0.02 | 93 | 1022.4 |
| 20260902142529 | 68 | 115 | 0.0 | 1.0 | 0.00 | 0.87 | 0.02 | 93 | 1022.3 |
| 20260902142425 | 68 | 114 | 0.0 | 1.0 | 0.00 | 0.87 | 0.02 | 93 | 1022.3 |
| 20260902142321 | 68 | 116 | 1.0 | 2.0 | 0.00 | 0.87 | 0.02 | 94 | 1022.4 |
| 20260902142216 | 68 | 86 | 1.0 | 2.0 | 0.00 | 0.87 | 0.02 | 94 | 1022.3 |
| 20260902142128 | 68 | 86 | 0.0 | 1.0 | 0.00 | 0.87 | 0.02 | 94 | 1022.2 |
| 20260902142024 | 68 | 88 | 2.0 | 6.0 | 0.00 | 0.87 | 0.02 | 94 | 1022.2 |
| 20260902141920 | 68 | 101 | 2.0 | 7.0 | 0.00 | 0.87 | 0.02 | 95 | 1022.5 |
| 20260902141815 | 68 | 82 | 1.0 | 2.0 | 0.00 | 0.87 | 0.02 | 95 | 1022.5 |
| 20260902141726 | 68 | 81 | 0.0 | 1.0 | 0.00 | 0.87 | 0.02 | 96 | 1022.2 |
| 20260902141622 | 68 | 81 | 1.0 | 2.0 | 0.00 | 0.87 | 0.02 | 96 | 1022.2 |